Wetterdaten: Donnerstag, 14.09.2017
Datum Zeit Temp. Aussen Temp. o. S. +5cm Feuchte Auss BlattFeu 1 Luftdruck Regen Sonnenschein Regendauer Solar Windben Empfang
14.09.2017 00:00 14,2 C 12,2 C 11,1 C 85 % 15 lf 1000,0 hPa 0,0 l/m 0 min 2 min 0 W/m 31,4 km/h (5 Bft) 95,74 %
14.09.2017 00:02 14,2 C 12,2 C 11,1 C 86 % 15 lf 1000,1 hPa 0,0 l/m 0 min 2 min 0 W/m 25,1 km/h (4 Bft) 91,43 %
14.09.2017 00:04 14,2 C 12,2 C 11,1 C 86 % 15 lf 1000,1 hPa 0,0 l/m 0 min 0 min 0 W/m 29,3 km/h (5 Bft) 93,62 %
14.09.2017 00:07 13,8 C 11,7 C 10,6 C 85 % 15 lf 1000,0 hPa 0,0 l/m 0 min 3 min 0 W/m 33,5 km/h (5 Bft) 97,56 %
14.09.2017 00:08 13,8 C 11,7 C 10,6 C 85 % 15 lf 1000,0 hPa 0,0 l/m 0 min 1 min 0 W/m 27,2 km/h (4 Bft) 91,67 %
14.09.2017 00:10 13,6 C 11,7 C 10,6 C 85 % 15 lf 999,9 hPa 0,0 l/m 0 min 2 min 0 W/m 27,2 km/h (4 Bft) 93,62 %
14.09.2017 00:12 13,5 C 11,7 C 10,6 C 85 % 15 lf 999,9 hPa 0,0 l/m 0 min 2 min 0 W/m 27,2 km/h (4 Bft) 95,74 %
14.09.2017 00:14 13,4 C 11,7 C 10,6 C 85 % 15 lf 999,9 hPa 0,0 l/m 0 min 2 min 0 W/m 20,9 km/h (4 Bft) 97,83 %
14.09.2017 00:16 13,3 C 11,7 C 10,6 C 85 % 15 lf 999,9 hPa 0,0 l/m 0 min 2 min 0 W/m 16,7 km/h (3 Bft) 95,74 %
14.09.2017 00:18 13,3 C 11,1 C 10,6 C 85 % 15 lf 999,9 hPa 0,2 l/m 0 min 2 min 0 W/m 16,7 km/h (3 Bft) 95,74 %
14.09.2017 00:20 13,2 C 11,1 C 10,0 C 86 % 15 lf 1000,0 hPa 0,0 l/m 0 min 2 min 0 W/m 27,2 km/h (4 Bft) 97,87 %
14.09.2017 00:22 13,2 C 11,1 C 10,6 C 86 % 15 lf 1000,0 hPa 0,2 l/m 0 min 2 min 0 W/m 20,9 km/h (4 Bft) 95,74 %
14.09.2017 00:24 13,1 C 11,1 C 10,0 C 86 % 15 lf 1000,0 hPa 0,0 l/m 0 min 2 min 0 W/m 25,1 km/h (4 Bft) 95,65 %
14.09.2017 00:26 13,1 C 11,1 C 10,0 C 87 % 15 lf 1000,0 hPa 0,0 l/m 0 min 2 min 0 W/m 16,7 km/h (3 Bft) 97,87 %
14.09.2017 00:28 12,9 C 11,1 C 10,0 C 87 % 15 lf 1000,0 hPa 0,2 l/m 0 min 2 min 0 W/m 18,8 km/h (3 Bft) 97,87 %
14.09.2017 00:30 12,9 C 11,1 C 10,0 C 87 % 15 lf 999,9 hPa 0,0 l/m 0 min 2 min 0 W/m 20,9 km/h (4 Bft) 93,62 %
14.09.2017 00:32 12,8 C 11,1 C 10,6 C 88 % 15 lf 999,9 hPa 0,0 l/m 0 min 2 min 0 W/m 23,0 km/h (4 Bft) 93,62 %
14.09.2017 00:34 12,8 C 11,1 C 10,6 C 88 % 15 lf 999,9 hPa 0,0 l/m 0 min 0 min 0 W/m 10,5 km/h (2 Bft) 89,36 %
14.09.2017 00:36 12,7 C 11,1 C 10,6 C 88 % 15 lf 1000,0 hPa 0,0 l/m 0 min 0 min 0 W/m 16,7 km/h (3 Bft) 100,00 %
14.09.2017 00:38 12,7 C 11,1 C 10,6 C 89 % 15 lf 1000,0 hPa 0,0 l/m 0 min 0 min 0 W/m 14,6 km/h (3 Bft) 95,74 %
14.09.2017 00:40 12,7 C 11,1 C 10,6 C 89 % 15 lf 1000,0 hPa 0,0 l/m 0 min 2 min 0 W/m 20,9 km/h (4 Bft) 97,87 %
14.09.2017 00:42 12,7 C 11,1 C 10,6 C 89 % 15 lf 1000,0 hPa 0,2 l/m 0 min 2 min 0 W/m 23,0 km/h (4 Bft) 95,74 %
14.09.2017 00:44 12,6 C 11,1 C 10,6 C 90 % 15 lf 999,9 hPa 0,2 l/m 0 min 2 min 0 W/m 29,3 km/h (5 Bft) 100,00 %
14.09.2017 00:46 12,6 C 11,1 C 10,6 C 90 % 15 lf 999,8 hPa 0,2 l/m 0 min 2 min 0 W/m 29,3 km/h (5 Bft) 97,87 %
14.09.2017 00:48 12,6 C 11,1 C 10,6 C 90 % 15 lf 999,8 hPa 0,0 l/m 0 min 2 min 0 W/m 16,7 km/h (3 Bft) 100,00 %
14.09.2017 00:50 12,5 C 11,1 C 10,6 C 91 % 15 lf 999,8 hPa 0,0 l/m 0 min 0 min 0 W/m 25,1 km/h (4 Bft) 95,74 %
14.09.2017 00:52 12,5 C 11,1 C 10,6 C 91 % 15 lf 999,8 hPa 0,0 l/m 0 min 0 min 0 W/m 20,9 km/h (4 Bft) 97,87 %
14.09.2017 00:54 12,5 C 11,1 C 10,6 C 91 % 15 lf 999,7 hPa 0,0 l/m 0 min 0 min 0 W/m 12,6 km/h (3 Bft) 100,00 %
14.09.2017 00:56 12,4 C 11,1 C 10,6 C 91 % 15 lf 999,7 hPa 0,0 l/m 0 min 0 min 0 W/m 18,8 km/h (3 Bft) 95,74 %
14.09.2017 00:58 12,4 C 11,1 C 10,6 C 91 % 15 lf 999,8 hPa 0,0 l/m 0 min 0 min 0 W/m 16,7 km/h (3 Bft) 95,74 %
14.09.2017 01:00 12,4 C 11,7 C 10,6 C 91 % 15 lf 999,8 hPa 0,0 l/m 0 min 0 min 0 W/m 18,8 km/h (3 Bft) 97,83 %
14.09.2017 01:02 12,4 C 11,7 C 10,6 C 92 % 15 lf 999,8 hPa 0,0 l/m 0 min 0 min 0 W/m 16,7 km/h (3 Bft) 91,49 %
14.09.2017 01:04 12,4 C 11,1 C 10,6 C 92 % 15 lf 999,9 hPa 0,0 l/m 0 min 0 min 0 W/m 10,5 km/h (2 Bft) 95,74 %
14.09.2017 01:06 12,4 C 11,1 C 10,6 C 92 % 15 lf 999,9 hPa 0,0 l/m 0 min 0 min 0 W/m 14,6 km/h (3 Bft) 93,62 %
14.09.2017 01:08 12,4 C 11,1 C 10,6 C 92 % 15 lf 999,9 hPa 0,0 l/m 0 min 0 min 0 W/m 14,6 km/h (3 Bft) 93,62 %
14.09.2017 01:10 12,3 C 11,1 C 10,6 C 92 % 15 lf 999,8 hPa 0,0 l/m 0 min 0 min 0 W/m 14,6 km/h (3 Bft) 95,74 %
14.09.2017 01:12 12,3 C 11,1 C 10,6 C 92 % 15 lf 999,9 hPa 0,0 l/m 0 min 0 min 0 W/m 14,6 km/h (3 Bft) 95,65 %
14.09.2017 01:14 12,3 C 11,1 C 10,6 C 92 % 15 lf 999,9 hPa 0,0 l/m 0 min 0 min 0 W/m 14,6 km/h (3 Bft) 95,74 %
14.09.2017 01:16 12,3 C 11,1 C 10,6 C 93 % 15 lf 999,9 hPa 0,0 l/m 0 min 0 min 0 W/m 16,7 km/h (3 Bft) 93,62 %
14.09.2017 01:18 12,3 C 11,1 C 10,6 C 93 % 15 lf 999,9 hPa 0,0 l/m 0 min 0 min 0 W/m 18,8 km/h (3 Bft) 91,49 %
14.09.2017 01:20 12,3 C 11,1 C 10,6 C 93 % 15 lf 1000,0 hPa 0,0 l/m 0 min 0 min 0 W/m 14,6 km/h (3 Bft) 93,62 %
14.09.2017 01:22 12,3 C 11,7 C 10,6 C 93 % 15 lf 1000,0 hPa 0,0 l/m 0 min 0 min 0 W/m 12,6 km/h (3 Bft) 93,62 %
14.09.2017 01:24 12,3 C 11,1 C 10,6 C 93 % 15 lf 999,9 hPa 0,0 l/m 0 min 0 min 0 W/m 14,6 km/h (3 Bft) 95,65 %
14.09.2017 01:26 12,3 C 11,7 C 10,6 C 93 % 15 lf 1000,0 hPa 0,0 l/m 0 min 0 min 0 W/m 12,6 km/h (3 Bft) 95,74 %
14.09.2017 01:28 12,3 C 11,7 C 10,6 C 93 % 15 lf 1000,1 hPa 0,0 l/m 0 min 0 min 0 W/m 12,6 km/h (3 Bft) 95,74 %
14.09.2017 01:30 12,3 C 11,7 C 10,6 C 93 % 15 lf 1000,1 hPa 0,0 l/m 0 min 0 min 0 W/m 16,7 km/h (3 Bft) 93,62 %
14.09.2017 01:32 12,3 C 11,7 C 10,6 C 93 % 15 lf 1000,1 hPa 0,0 l/m 0 min 0 min 0 W/m 12,6 km/h (3 Bft) 95,74 %
14.09.2017 01:34 12,3 C 11,7 C 10,6 C 93 % 15 lf 1000,1 hPa 0,0 l/m 0 min 0 min 0 W/m 16,7 km/h (3 Bft) 93,62 %
14.09.2017 01:36 12,3 C 11,7 C 10,6 C 93 % 15 lf 1000,1 hPa 0,0 l/m 0 min 0 min 0 W/m 12,6 km/h (3 Bft) 93,48 %
14.09.2017 01:38 12,3 C 11,7 C 10,6 C 93 % 15 lf 1000,1 hPa 0,0 l/m 0 min 0 min 0 W/m 18,8 km/h (3 Bft) 95,74 %
14.09.2017 01:40 12,3 C 11,7 C 10,6 C 93 % 15 lf 1000,1 hPa 0,0 l/m 0 min 0 min 0 W/m 12,6 km/h (3 Bft) 95,74 %
14.09.2017 01:42 12,3 C 11,7 C 10,6 C 93 % 15 lf 1000,2 hPa 0,0 l/m 0 min 0 min 0 W/m 18,8 km/h (3 Bft) 93,62 %
14.09.2017 01:44 12,3 C 11,7 C 10,6 C 94 % 15 lf 1000,2 hPa 0,0 l/m 0 min 0 min 0 W/m 20,9 km/h (4 Bft) 93,62 %
14.09.2017 01:46 12,3 C 11,7 C 10,6 C 94 % 15 lf 1000,2 hPa 0,0 l/m 0 min 0 min 0 W/m 18,8 km/h (3 Bft) 95,65 %
14.09.2017 01:48 12,4 C 11,7 C 10,6 C 94 % 15 lf 1000,2 hPa 0,0 l/m 0 min 0 min 0 W/m 18,8 km/h (3 Bft) 93,62 %
14.09.2017 01:50 12,4 C 11,7 C 10,6 C 94 % 15 lf 1000,2 hPa 0,0 l/m 0 min 0 min 0 W/m 14,6 km/h (3 Bft) 91,49 %
14.09.2017 01:52 12,4 C 11,7 C 10,6 C 94 % 15 lf 1000,2 hPa 0,0 l/m 0 min 0 min 0 W/m 18,8 km/h (3 Bft) 95,74 %
14.09.2017 01:54 12,4 C 11,7 C 10,6 C 94 % 15 lf 1000,3 hPa 0,0 l/m 0 min 0 min 0 W/m 18,8 km/h (3 Bft) 95,74 %
14.09.2017 01:56 12,4 C 11,7 C 10,6 C 94 % 15 lf 1000,2 hPa 0,0 l/m 0 min 0 min 0 W/m 23,0 km/h (4 Bft) 95,74 %
14.09.2017 01:58 12,4 C 11,7 C 10,6 C 94 % 15 lf 1000,2 hPa 0,0 l/m 0 min 0 min 0 W/m 25,1 km/h (4 Bft) 95,65 %
14.09.2017 02:00 12,4 C 11,7 C 10,6 C 94 % 15 lf 1000,2 hPa 0,0 l/m 0 min 0 min 0 W/m 29,3 km/h (5 Bft) 91,49 %
14.09.2017 02:02 12,3 C 11,7 C 10,6 C 94 % 15 lf 1000,2 hPa 0,0 l/m 0 min 0 min 0 W/m 41,8 km/h (6 Bft) 93,62 %
14.09.2017 02:04 12,4 C 11,7 C 10,6 C 94 % 15 lf 1000,2 hPa 0,0 l/m 0 min 0 min 0 W/m 27,2 km/h (4 Bft) 100,00 %
14.09.2017 02:06 12,3 C 11,7 C 10,6 C 94 % 15 lf 1000,2 hPa 0,0 l/m 0 min 0 min 0 W/m 23,0 km/h (4 Bft) 97,87 %
14.09.2017 02:08 12,3 C 11,7 C 10,6 C 94 % 15 lf 1000,2 hPa 0,0 l/m 0 min 0 min 0 W/m 23,0 km/h (4 Bft) 100,00 %
14.09.2017 02:10 12,3 C 11,7 C 10,6 C 94 % 15 lf 1000,2 hPa 0,0 l/m 0 min 0 min 0 W/m 20,9 km/h (4 Bft) 97,83 %
14.09.2017 02:12 12,3 C 11,7 C 10,6 C 94 % 15 lf 1000,2 hPa 0,0 l/m 0 min 0 min 0 W/m 16,7 km/h (3 Bft) 97,87 %
14.09.2017 02:14 12,3 C 11,7 C 10,6 C 94 % 15 lf 1000,2 hPa 0,0 l/m 0 min 0 min 0 W/m 20,9 km/h (4 Bft) 97,87 %
14.09.2017 02:16 12,3 C 11,7 C 10,6 C 94 % 15 lf 1000,2 hPa 0,0 l/m 0 min 0 min 0 W/m 20,9 km/h (4 Bft) 100,00 %
14.09.2017 02:18 12,3 C 11,7 C 10,6 C 94 % 15 lf 1000,1 hPa 0,0 l/m 0 min 0 min 0 W/m 23,0 km/h (4 Bft) 97,87 %
14.09.2017 02:20 12,3 C 11,7 C 10,6 C 94 % 15 lf 1000,1 hPa 0,0 l/m 0 min 0 min 0 W/m 23,0 km/h (4 Bft) 97,87 %
14.09.2017 02:22 12,3 C 11,7 C 10,6 C 94 % 15 lf 1000,1 hPa 0,0 l/m 0 min 0 min 0 W/m 23,0 km/h (4 Bft) 100,00 %
14.09.2017 02:24 12,2 C 11,7 C 10,6 C 94 % 15 lf 1000,0 hPa 0,0 l/m 0 min 0 min 0 W/m 25,1 km/h (4 Bft) 100,00 %
14.09.2017 02:26 12,3 C 11,1 C 10,0 C 94 % 15 lf 1000,0 hPa 0,0 l/m 0 min 0 min 0 W/m 23,0 km/h (4 Bft) 97,87 %
14.09.2017 02:28 12,2 C 11,1 C 10,0 C 94 % 15 lf 1000,0 hPa 0,0 l/m 0 min 0 min 0 W/m 14,6 km/h (3 Bft) 97,87 %
14.09.2017 02:30 12,2 C 11,1 C 10,0 C 94 % 15 lf 1000,0 hPa 0,0 l/m 0 min 0 min 0 W/m 20,9 km/h (4 Bft) 100,00 %
14.09.2017 02:32 12,2 C 11,1 C 10,0 C 94 % 15 lf 1000,0 hPa 0,0 l/m 0 min 0 min 0 W/m 20,9 km/h (4 Bft) 97,87 %
14.09.2017 02:34 12,2 C 11,1 C 10,0 C 94 % 15 lf 1000,0 hPa 0,0 l/m 0 min 0 min 0 W/m 16,7 km/h (3 Bft) 100,00 %
14.09.2017 02:36 12,2 C 11,1 C 10,6 C 94 % 15 lf 1000,0 hPa 0,0 l/m 0 min 0 min 0 W/m 16,7 km/h (3 Bft) 97,87 %
14.09.2017 02:38 12,2 C 11,1 C 10,6 C 94 % 15 lf 999,9 hPa 0,0 l/m 0 min 0 min 0 W/m 20,9 km/h (4 Bft) 100,00 %
14.09.2017 02:40 12,2 C 11,1 C 10,6 C 94 % 15 lf 1000,0 hPa 0,0 l/m 0 min 0 min 0 W/m 12,6 km/h (3 Bft) 97,87 %
14.09.2017 02:42 12,2 C 11,1 C 10,6 C 94 % 15 lf 999,9 hPa 0,0 l/m 0 min 0 min 0 W/m 10,5 km/h (2 Bft) 97,87 %
14.09.2017 02:44 12,2 C 11,1 C 10,6 C 94 % 15 lf 1000,0 hPa 0,0 l/m 0 min 0 min 0 W/m 14,6 km/h (3 Bft) 93,62 %
14.09.2017 02:46 12,1 C 11,1 C 10,6 C 94 % 15 lf 1000,0 hPa 0,0 l/m 0 min 0 min 0 W/m 14,6 km/h (3 Bft) 93,48 %
14.09.2017 02:48 12,1 C 11,1 C 10,6 C 94 % 15 lf 999,9 hPa 0,0 l/m 0 min 0 min 0 W/m 16,7 km/h (3 Bft) 91,49 %
14.09.2017 02:50 12,1 C 11,1 C 10,6 C 94 % 15 lf 999,9 hPa 0,0 l/m 0 min 0 min 0 W/m 16,7 km/h (3 Bft) 95,74 %
14.09.2017 02:52 12,1 C 11,1 C 10,6 C 94 % 15 lf 1000,0 hPa 0,0 l/m 0 min 0 min 0 W/m 8,4 km/h (2 Bft) 93,62 %
14.09.2017 02:54 12,1 C 11,1 C 10,6 C 94 % 15 lf 999,9 hPa 0,0 l/m 0 min 0 min 0 W/m 18,8 km/h (3 Bft) 95,74 %
14.09.2017 02:56 12,1 C 11,1 C 10,0 C 94 % 15 lf 999,9 hPa 0,0 l/m 0 min 0 min 0 W/m 14,6 km/h (3 Bft) 95,74 %
14.09.2017 02:58 12,1 C 11,1 C 10,0 C 94 % 15 lf 999,9 hPa 0,0 l/m 0 min 0 min 0 W/m 18,8 km/h (3 Bft) 95,65 %
14.09.2017 03:00 12,1 C 11,1 C 10,0 C 94 % 15 lf 999,9 hPa 0,0 l/m 0 min 0 min 0 W/m 14,6 km/h (3 Bft) 95,74 %
14.09.2017 03:02 12,1 C 11,1 C 10,6 C 94 % 15 lf 999,8 hPa 0,0 l/m 0 min 0 min 0 W/m 18,8 km/h (3 Bft) 95,74 %
14.09.2017 03:04 12,1 C 11,1 C 10,6 C 94 % 15 lf 999,7 hPa 0,0 l/m 0 min 0 min 0 W/m 14,6 km/h (3 Bft) 95,74 %
14.09.2017 03:06 12,1 C 11,1 C 10,0 C 94 % 14 lf 999,7 hPa 0,0 l/m 0 min 0 min 0 W/m 14,6 km/h (3 Bft) 93,62 %
14.09.2017 03:08 12,1 C 11,1 C 10,0 C 94 % 14 lf 999,8 hPa 0,0 l/m 0 min 0 min 0 W/m 14,6 km/h (3 Bft) 93,62 %
14.09.2017 03:10 12,1 C 11,1 C 10,0 C 94 % 14 lf 999,8 hPa 0,0 l/m 0 min 0 min 0 W/m 18,8 km/h (3 Bft) 93,48 %
14.09.2017 03:12 12,0 C 11,1 C 10,0 C 94 % 14 lf 999,7 hPa 0,0 l/m 0 min 0 min 0 W/m 14,6 km/h (3 Bft) 93,62 %
14.09.2017 03:14 12,0 C 11,1 C 10,0 C 94 % 13 lf 999,8 hPa 0,0 l/m 0 min 0 min 0 W/m 16,7 km/h (3 Bft) 95,74 %
14.09.2017 03:16 12,0 C 11,1 C 10,0 C 94 % 13 lf 999,8 hPa 0,0 l/m 0 min 0 min 0 W/m 12,6 km/h (3 Bft) 97,87 %
14.09.2017 03:18 12,0 C 11,1 C 10,0 C 94 % 13 lf 999,8 hPa 0,0 l/m 0 min 0 min 0 W/m 16,7 km/h (3 Bft) 97,87 %
14.09.2017 03:20 11,9 C 11,1 C 10,0 C 94 % 12 lf 999,8 hPa 0,0 l/m 0 min 0 min 0 W/m 18,8 km/h (3 Bft) 97,83 %
14.09.2017 03:22 11,9 C 11,1 C 10,0 C 93 % 12 lf 999,8 hPa 0,0 l/m 0 min 0 min 0 W/m 16,7 km/h (3 Bft) 95,74 %
14.09.2017 03:24 11,9 C 11,1 C 10,0 C 93 % 12 lf 999,8 hPa 0,0 l/m 0 min 0 min 0 W/m 18,8 km/h (3 Bft) 97,87 %
14.09.2017 03:26 11,9 C 11,1 C 10,0 C 93 % 12 lf 999,9 hPa 0,0 l/m 0 min 0 min 0 W/m 12,6 km/h (3 Bft) 97,87 %
14.09.2017 03:28 11,9 C 11,1 C 10,0 C 93 % 11 lf 999,8 hPa 0,0 l/m 0 min 0 min 0 W/m 18,8 km/h (3 Bft) 95,74 %
14.09.2017 03:30 11,9 C 10,6 C 10,0 C 93 % 11 lf 999,9 hPa 0,0 l/m 0 min 0 min 0 W/m 14,6 km/h (3 Bft) 100,00 %
14.09.2017 03:32 11,9 C 10,6 C 10,0 C 93 % 10 lf 999,9 hPa 0,0 l/m 0 min 0 min 0 W/m 18,8 km/h (3 Bft) 100,00 %
14.09.2017 03:34 11,8 C 10,6 C 10,0 C 93 % 10 lf 999,9 hPa 0,0 l/m 0 min 0 min 0 W/m 23,0 km/h (4 Bft) 100,00 %
14.09.2017 03:36 11,8 C 10,6 C 10,0 C 93 % 9 lf 999,9 hPa 0,0 l/m 0 min 0 min 5 W/m 18,8 km/h (3 Bft) 97,87 %
14.09.2017 03:38 11,8 C 10,6 C 10,0 C 93 % 9 lf 999,9 hPa 0,0 l/m 0 min 0 min 5 W/m 16,7 km/h (3 Bft) 97,87 %
14.09.2017 03:40 11,8 C 10,6 C 9,4 C 93 % 9 lf 999,9 hPa 0,0 l/m 0 min 0 min 0 W/m 16,7 km/h (3 Bft) 100,00 %
14.09.2017 03:42 11,7 C 10,6 C 9,4 C 93 % 8 lf 999,9 hPa 0,0 l/m 0 min 0 min 0 W/m 12,6 km/h (3 Bft) 100,00 %
14.09.2017 03:44 11,7 C 10,6 C 9,4 C 93 % 7 lf 999,9 hPa 0,0 l/m 0 min 0 min 0 W/m 23,0 km/h (4 Bft) 100,00 %
14.09.2017 03:46 11,7 C 10,6 C 9,4 C 93 % 6 lf 999,9 hPa 0,0 l/m 0 min 0 min 0 W/m 23,0 km/h (4 Bft) 95,74 %
14.09.2017 03:48 11,7 C 10,6 C 9,4 C 93 % 6 lf 999,9 hPa 0,0 l/m 0 min 0 min 0 W/m 10,5 km/h (2 Bft) 100,00 %
14.09.2017 03:50 11,7 C 10,6 C 9,4 C 93 % 4 lf 999,9 hPa 0,0 l/m 0 min 0 min 0 W/m 20,9 km/h (4 Bft) 100,00 %
14.09.2017 03:52 11,7 C 10,6 C 9,4 C 93 % 4 lf 999,9 hPa 0,0 l/m 0 min 0 min 1 W/m 16,7 km/h (3 Bft) 97,87 %
14.09.2017 03:54 11,6 C 10,6 C 9,4 C 93 % 4 lf 1000,0 hPa 0,0 l/m 0 min 0 min 3 W/m 23,0 km/h (4 Bft) 100,00 %
14.09.2017 03:56 11,6 C 10,6 C 9,4 C 93 % 3 lf 999,9 hPa 0,0 l/m 0 min 0 min 5 W/m 16,7 km/h (3 Bft) 100,00 %
14.09.2017 03:58 11,6 C 10,6 C 9,4 C 93 % 3 lf 999,9 hPa 0,0 l/m 0 min 0 min 5 W/m 18,8 km/h (3 Bft) 100,00 %
14.09.2017 04:00 11,6 C 10,6 C 9,4 C 93 % 2 lf 999,9 hPa 0,0 l/m 0 min 0 min 0 W/m 23,0 km/h (4 Bft) 95,74 %
14.09.2017 04:02 11,6 C 10,6 C 9,4 C 93 % 2 lf 999,9 hPa 0,0 l/m 0 min 0 min 0 W/m 27,2 km/h (4 Bft) 94,74 %
14.09.2017 04:04 11,6 C 10,6 C 9,4 C 93 % 1 lf 999,9 hPa 0,0 l/m 0 min 0 min 5 W/m 25,1 km/h (4 Bft) 97,87 %
14.09.2017 04:06 11,6 C 10,6 C 9,4 C 93 % 1 lf 1000,0 hPa 0,0 l/m 0 min 0 min 5 W/m 20,9 km/h (4 Bft) 97,87 %
14.09.2017 04:08 11,6 C 10,6 C 9,4 C 93 % 1 lf 999,8 hPa 0,0 l/m 0 min 0 min 0 W/m 20,9 km/h (4 Bft) 95,65 %
14.09.2017 04:10 11,6 C 10,6 C 9,4 C 93 % 1 lf 999,8 hPa 0,0 l/m 0 min 0 min 0 W/m 20,9 km/h (4 Bft) 100,00 %
14.09.2017 04:12 11,6 C 10,6 C 9,4 C 93 % 1 lf 999,8 hPa 0,0 l/m 0 min 0 min 0 W/m 23,0 km/h (4 Bft) 100,00 %
14.09.2017 04:14 11,6 C 10,6 C 9,4 C 93 % 1 lf 999,7 hPa 0,0 l/m 0 min 0 min 5 W/m 14,6 km/h (3 Bft) 95,74 %
14.09.2017 04:16 11,5 C 10,6 C 9,4 C 93 % 1 lf 999,8 hPa 0,0 l/m 0 min 0 min 5 W/m 25,1 km/h (4 Bft) 95,74 %
14.09.2017 04:18 11,5 C 10,6 C 9,4 C 93 % 0 lf 999,7 hPa 0,0 l/m 0 min 0 min 5 W/m 20,9 km/h (4 Bft) 97,87 %
14.09.2017 04:20 11,5 C 10,6 C 9,4 C 93 % 1 lf 999,7 hPa 0,0 l/m 0 min 0 min 0 W/m 20,9 km/h (4 Bft) 97,83 %
14.09.2017 04:22 11,5 C 10,6 C 9,4 C 93 % 0 lf 999,6 hPa 0,0 l/m 0 min 0 min 0 W/m 20,9 km/h (4 Bft) 95,74 %
14.09.2017 04:24 11,5 C 10,6 C 10,0 C 93 % 0 lf 999,6 hPa 0,0 l/m 0 min 0 min 0 W/m 20,9 km/h (4 Bft) 97,87 %
14.09.2017 04:26 11,5 C 10,6 C 10,0 C 93 % 0 lf 999,6 hPa 0,0 l/m 0 min 0 min 5 W/m 18,8 km/h (3 Bft) 95,74 %
14.09.2017 04:28 11,5 C 10,6 C 10,0 C 93 % 0 lf 999,5 hPa 0,0 l/m 0 min 0 min 5 W/m 23,0 km/h (4 Bft) 97,87 %
14.09.2017 04:30 11,5 C 10,6 C 10,0 C 93 % 0 lf 999,5 hPa 0,0 l/m 0 min 0 min 5 W/m 18,8 km/h (3 Bft) 95,74 %
14.09.2017 04:32 11,5 C 10,6 C 10,0 C 93 % 0 lf 999,5 hPa 0,0 l/m 0 min 0 min 5 W/m 16,7 km/h (3 Bft) 97,83 %
14.09.2017 04:34 11,5 C 10,6 C 10,0 C 93 % 0 lf 999,4 hPa 0,0 l/m 0 min 0 min 5 W/m 25,1 km/h (4 Bft) 97,87 %
14.09.2017 04:36 11,5 C 10,6 C 10,0 C 93 % 0 lf 999,4 hPa 0,0 l/m 0 min 0 min 5 W/m 16,7 km/h (3 Bft) 95,74 %
14.09.2017 04:38 11,5 C 10,6 C 10,0 C 93 % 0 lf 999,4 hPa 0,0 l/m 0 min 0 min 5 W/m 14,6 km/h (3 Bft) 91,49 %
14.09.2017 04:40 11,5 C 10,6 C 10,0 C 93 % 0 lf 999,4 hPa 0,0 l/m 0 min 0 min 5 W/m 18,8 km/h (3 Bft) 95,74 %
14.09.2017 04:42 11,5 C 10,6 C 10,0 C 93 % 0 lf 999,5 hPa 0,0 l/m 0 min 0 min 5 W/m 14,6 km/h (3 Bft) 95,65 %
14.09.2017 04:44 11,5 C 10,6 C 9,4 C 93 % 0 lf 999,4 hPa 0,0 l/m 0 min 0 min 5 W/m 16,7 km/h (3 Bft) 95,74 %
14.09.2017 04:46 11,5 C 10,6 C 9,4 C 93 % 0 lf 999,4 hPa 0,0 l/m 0 min 0 min 5 W/m 16,7 km/h (3 Bft) 95,74 %
14.09.2017 04:48 11,5 C 10,6 C 9,4 C 93 % 0 lf 999,5 hPa 0,0 l/m 0 min 0 min 5 W/m 20,9 km/h (4 Bft) 97,87 %
14.09.2017 04:50 11,5 C 10,6 C 9,4 C 93 % 0 lf 999,5 hPa 0,0 l/m 0 min 0 min 5 W/m 23,0 km/h (4 Bft) 95,74 %
14.09.2017 04:52 11,4 C 10,6 C 9,4 C 93 % 0 lf 999,5 hPa 0,0 l/m 0 min 0 min 5 W/m 18,8 km/h (3 Bft) 91,49 %
14.09.2017 04:54 11,5 C 10,6 C 9,4 C 93 % 0 lf 999,4 hPa 0,0 l/m 0 min 0 min 5 W/m 23,0 km/h (4 Bft) 95,65 %
14.09.2017 04:56 11,4 C 10,6 C 9,4 C 93 % 0 lf 999,4 hPa 0,0 l/m 0 min 0 min 5 W/m 23,0 km/h (4 Bft) 97,87 %
14.09.2017 04:58 11,4 C 10,6 C 9,4 C 93 % 0 lf 999,4 hPa 0,0 l/m 0 min 0 min 5 W/m 20,9 km/h (4 Bft) 97,87 %
14.09.2017 05:00 11,4 C 10,6 C 9,4 C 93 % 0 lf 999,4 hPa 0,0 l/m 0 min 0 min 5 W/m 18,8 km/h (3 Bft) 97,87 %
14.09.2017 05:02 11,4 C 10,6 C 9,4 C 93 % 0 lf 999,5 hPa 0,0 l/m 0 min 0 min 5 W/m 20,9 km/h (4 Bft) 95,74 %
14.09.2017 05:04 11,4 C 10,6 C 9,4 C 93 % 0 lf 999,5 hPa 0,0 l/m 0 min 0 min 5 W/m 14,6 km/h (3 Bft) 95,74 %
14.09.2017 05:06 11,4 C 10,6 C 9,4 C 93 % 0 lf 999,4 hPa 0,0 l/m 0 min 0 min 5 W/m 20,9 km/h (4 Bft) 95,65 %
14.09.2017 05:08 11,4 C 10,6 C 9,4 C 93 % 0 lf 999,4 hPa 0,0 l/m 0 min 0 min 5 W/m 14,6 km/h (3 Bft) 93,62 %
14.09.2017 05:10 11,4 C 10,6 C 9,4 C 93 % 0 lf 999,5 hPa 0,0 l/m 0 min 0 min 5 W/m 18,8 km/h (3 Bft) 95,74 %
14.09.2017 05:12 11,4 C 10,6 C 9,4 C 93 % 0 lf 999,4 hPa 0,0 l/m 0 min 0 min 5 W/m 14,6 km/h (3 Bft) 97,87 %
14.09.2017 05:14 11,4 C 10,6 C 9,4 C 93 % 0 lf 999,4 hPa 0,0 l/m 0 min 0 min 0 W/m 20,9 km/h (4 Bft) 97,87 %
14.09.2017 05:16 11,3 C 10,6 C 9,4 C 93 % 0 lf 999,4 hPa 0,0 l/m 0 min 0 min 5 W/m 16,7 km/h (3 Bft) 97,87 %
14.09.2017 05:18 11,3 C 10,6 C 9,4 C 93 % 0 lf 999,4 hPa 0,0 l/m 0 min 0 min 5 W/m 16,7 km/h (3 Bft) 97,83 %
14.09.2017 05:20 11,3 C 10,6 C 9,4 C 93 % 0 lf 999,4 hPa 0,0 l/m 0 min 0 min 5 W/m 16,7 km/h (3 Bft) 93,62 %
14.09.2017 05:22 11,3 C 10,6 C 9,4 C 93 % 0 lf 999,4 hPa 0,0 l/m 0 min 0 min 5 W/m 23,0 km/h (4 Bft) 95,74 %
14.09.2017 05:24 11,3 C 10,6 C 9,4 C 93 % 0 lf 999,5 hPa 0,0 l/m 0 min 0 min 5 W/m 20,9 km/h (4 Bft) 97,87 %
14.09.2017 05:26 11,3 C 10,6 C 9,4 C 93 % 0 lf 999,4 hPa 0,0 l/m 0 min 0 min 5 W/m 20,9 km/h (4 Bft) 100,00 %
14.09.2017 05:28 11,3 C 10,6 C 9,4 C 93 % 0 lf 999,4 hPa 0,0 l/m 0 min 0 min 5 W/m 18,8 km/h (3 Bft) 95,74 %
14.09.2017 05:30 11,3 C 10,0 C 9,4 C 93 % 0 lf 999,4 hPa 0,0 l/m 0 min 0 min 5 W/m 16,7 km/h (3 Bft) 95,65 %
14.09.2017 05:32 11,2 C 10,6 C 9,4 C 93 % 0 lf 999,5 hPa 0,0 l/m 0 min 0 min 5 W/m 18,8 km/h (3 Bft) 93,62 %
14.09.2017 05:34 11,2 C 10,6 C 9,4 C 93 % 0 lf 999,5 hPa 0,0 l/m 0 min 0 min 5 W/m 16,7 km/h (3 Bft) 95,74 %
14.09.2017 05:36 11,2 C 10,6 C 9,4 C 93 % 0 lf 999,4 hPa 0,0 l/m 0 min 0 min 0 W/m 14,6 km/h (3 Bft) 95,74 %
14.09.2017 05:38 11,2 C 10,6 C 9,4 C 93 % 0 lf 999,4 hPa 0,0 l/m 0 min 0 min 5 W/m 18,8 km/h (3 Bft) 95,74 %
14.09.2017 05:40 11,2 C 10,6 C 9,4 C 93 % 0 lf 999,4 hPa 0,0 l/m 0 min 0 min 5 W/m 20,9 km/h (4 Bft) 93,48 %
14.09.2017 05:42 11,2 C 10,6 C 9,4 C 93 % 0 lf 999,3 hPa 0,0 l/m 0 min 0 min 0 W/m 20,9 km/h (4 Bft) 93,62 %
14.09.2017 05:44 11,2 C 10,6 C 9,4 C 93 % 0 lf 999,3 hPa 0,0 l/m 0 min 0 min 0 W/m 20,9 km/h (4 Bft) 95,74 %
14.09.2017 05:46 11,2 C 10,6 C 9,4 C 93 % 0 lf 999,2 hPa 0,0 l/m 0 min 0 min 5 W/m 20,9 km/h (4 Bft) 95,74 %
14.09.2017 05:48 11,2 C 10,6 C 9,4 C 93 % 0 lf 999,2 hPa 0,0 l/m 0 min 0 min 5 W/m 14,6 km/h (3 Bft) 95,74 %
14.09.2017 05:50 11,2 C 10,6 C 9,4 C 93 % 0 lf 999,1 hPa 0,0 l/m 0 min 0 min 5 W/m 18,8 km/h (3 Bft) 95,74 %
14.09.2017 05:52 11,2 C 10,6 C 9,4 C 93 % 0 lf 999,1 hPa 0,0 l/m 0 min 0 min 5 W/m 18,8 km/h (3 Bft) 95,65 %
14.09.2017 05:54 11,2 C 10,6 C 9,4 C 93 % 0 lf 999,2 hPa 0,0 l/m 0 min 0 min 0 W/m 16,7 km/h (3 Bft) 97,87 %
14.09.2017 05:56 11,2 C 10,6 C 9,4 C 93 % 0 lf 999,1 hPa 0,0 l/m 0 min 0 min 0 W/m 18,8 km/h (3 Bft) 93,62 %
14.09.2017 05:58 11,2 C 10,6 C 9,4 C 93 % 1 lf 999,1 hPa 0,0 l/m 0 min 0 min 5 W/m 16,7 km/h (3 Bft) 93,62 %
14.09.2017 06:00 11,2 C 10,6 C 9,4 C 93 % 0 lf 999,1 hPa 0,0 l/m 0 min 0 min 0 W/m 14,6 km/h (3 Bft) 95,74 %
14.09.2017 06:02 11,2 C 10,6 C 8,9 C 93 % 1 lf 999,2 hPa 0,0 l/m 0 min 0 min 0 W/m 12,6 km/h (3 Bft) 91,49 %
14.09.2017 06:04 11,2 C 10,6 C 8,9 C 93 % 1 lf 999,2 hPa 0,0 l/m 0 min 0 min 0 W/m 16,7 km/h (3 Bft) 95,65 %
14.09.2017 06:06 11,2 C 10,6 C 8,9 C 93 % 0 lf 999,1 hPa 0,0 l/m 0 min 0 min 0 W/m 16,7 km/h (3 Bft) 95,74 %
14.09.2017 06:10 11,2 C 10,6 C 9,4 C 93 % 0 lf 999,1 hPa 0,0 l/m 0 min 0 min 0 W/m 18,8 km/h (3 Bft) 93,62 %
14.09.2017 06:12 11,2 C 10,6 C 9,4 C 93 % 1 lf 999,1 hPa 0,0 l/m 0 min 0 min 0 W/m 16,7 km/h (3 Bft) 97,87 %
14.09.2017 06:14 11,2 C 10,6 C 9,4 C 93 % 1 lf 999,1 hPa 0,0 l/m 0 min 0 min 0 W/m 18,8 km/h (3 Bft) 97,87 %
14.09.2017 06:16 11,2 C 10,6 C 8,9 C 93 % 1 lf 999,0 hPa 0,0 l/m 0 min 0 min 0 W/m 16,7 km/h (3 Bft) 95,65 %
14.09.2017 06:18 11,2 C 10,6 C 8,9 C 93 % 1 lf 999,1 hPa 0,0 l/m 0 min 0 min 5 W/m 16,7 km/h (3 Bft) 95,74 %
14.09.2017 06:20 11,2 C 10,6 C 9,4 C 93 % 0 lf 999,1 hPa 0,0 l/m 0 min 0 min 0 W/m 16,7 km/h (3 Bft) 91,49 %
14.09.2017 06:22 11,1 C 10,6 C 9,4 C 93 % 0 lf 999,1 hPa 0,0 l/m 0 min 0 min 0 W/m 16,7 km/h (3 Bft) 97,87 %
14.09.2017 06:24 11,2 C 10,6 C 9,4 C 93 % 0 lf 999,1 hPa 0,0 l/m 0 min 0 min 5 W/m 16,7 km/h (3 Bft) 93,62 %
14.09.2017 06:26 11,2 C 10,6 C 9,4 C 93 % 0 lf 999,0 hPa 0,0 l/m 0 min 0 min 0 W/m 16,7 km/h (3 Bft) 97,87 %
14.09.2017 06:28 11,2 C 10,6 C 9,4 C 93 % 0 lf 999,0 hPa 0,0 l/m 0 min 0 min 0 W/m 20,9 km/h (4 Bft) 95,65 %
14.09.2017 06:30 11,2 C 10,6 C 9,4 C 93 % 0 lf 999,1 hPa 0,0 l/m 0 min 0 min 0 W/m 16,7 km/h (3 Bft) 93,62 %
14.09.2017 06:32 11,2 C 10,6 C 9,4 C 93 % 0 lf 999,1 hPa 0,0 l/m 0 min 0 min 0 W/m 14,6 km/h (3 Bft) 97,87 %
14.09.2017 06:34 11,2 C 10,6 C 9,4 C 94 % 0 lf 999,1 hPa 0,0 l/m 0 min 0 min 0 W/m 14,6 km/h (3 Bft) 97,87 %
14.09.2017 06:36 11,2 C 10,6 C 9,4 C 94 % 0 lf 999,1 hPa 0,0 l/m 0 min 0 min 0 W/m 14,6 km/h (3 Bft) 97,87 %
14.09.2017 06:38 11,2 C 10,6 C 9,4 C 94 % 0 lf 999,1 hPa 0,0 l/m 0 min 0 min 0 W/m 12,6 km/h (3 Bft) 95,74 %
14.09.2017 06:40 11,2 C 10,6 C 9,4 C 94 % 0 lf 999,1 hPa 0,0 l/m 0 min 0 min 0 W/m 14,6 km/h (3 Bft) 97,83 %
14.09.2017 06:42 11,2 C 11,1 C 9,4 C 94 % 0 lf 999,1 hPa 0,0 l/m 0 min 0 min 0 W/m 14,6 km/h (3 Bft) 93,62 %
14.09.2017 06:44 11,2 C 10,6 C 9,4 C 94 % 0 lf 999,0 hPa 0,0 l/m 0 min 0 min 0 W/m 10,5 km/h (2 Bft) 95,74 %
14.09.2017 06:46 11,2 C 11,1 C 9,4 C 94 % 0 lf 999,0 hPa 0,0 l/m 0 min 0 min 0 W/m 16,7 km/h (3 Bft) 93,62 %
14.09.2017 06:48 11,2 C 11,1 C 9,4 C 94 % 0 lf 999,0 hPa 0,0 l/m 0 min 0 min 0 W/m 16,7 km/h (3 Bft) 93,62 %
14.09.2017 06:50 11,2 C 11,1 C 9,4 C 94 % 0 lf 999,0 hPa 0,0 l/m 0 min 0 min 5 W/m 14,6 km/h (3 Bft) 93,62 %
14.09.2017 06:52 11,2 C 11,1 C 9,4 C 94 % 0 lf 999,0 hPa 0,0 l/m 0 min 0 min 0 W/m 16,7 km/h (3 Bft) 91,30 %
14.09.2017 06:54 11,2 C 11,1 C 9,4 C 94 % 0 lf 998,8 hPa 0,0 l/m 0 min 0 min 6 W/m 20,9 km/h (4 Bft) 91,49 %
14.09.2017 06:56 11,2 C 11,1 C 9,4 C 94 % 0 lf 998,8 hPa 0,0 l/m 0 min 0 min 6 W/m 18,8 km/h (3 Bft) 95,74 %
14.09.2017 06:58 11,2 C 11,1 C 9,4 C 94 % 0 lf 998,7 hPa 0,0 l/m 0 min 0 min 7 W/m 10,5 km/h (2 Bft) 95,74 %
14.09.2017 07:00 11,2 C 11,1 C 9,4 C 94 % 0 lf 998,6 hPa 0,0 l/m 0 min 0 min 7 W/m 18,8 km/h (3 Bft) 97,87 %
14.09.2017 07:02 11,2 C 11,1 C 9,4 C 94 % 0 lf 998,5 hPa 0,0 l/m 0 min 0 min 7 W/m 12,6 km/h (3 Bft) 97,83 %
14.09.2017 07:04 11,2 C 11,1 C 9,4 C 94 % 0 lf 998,4 hPa 0,0 l/m 0 min 0 min 7 W/m 18,8 km/h (3 Bft) 97,87 %
14.09.2017 07:06 11,2 C 11,1 C 9,4 C 94 % 0 lf 998,4 hPa 0,0 l/m 0 min 0 min 7 W/m 16,7 km/h (3 Bft) 97,87 %
14.09.2017 07:08 11,2 C 11,1 C 9,4 C 94 % 0 lf 998,4 hPa 0,0 l/m 0 min 0 min 7 W/m 16,7 km/h (3 Bft) 95,74 %
14.09.2017 07:10 11,2 C 11,1 C 9,4 C 94 % 0 lf 998,5 hPa 0,0 l/m 0 min 0 min 9 W/m 12,6 km/h (3 Bft) 93,62 %
14.09.2017 07:12 11,3 C 11,1 C 9,4 C 94 % 0 lf 998,5 hPa 0,0 l/m 0 min 0 min 9 W/m 16,7 km/h (3 Bft) 97,87 %
14.09.2017 07:14 11,3 C 11,1 C 9,4 C 94 % 0 lf 998,5 hPa 0,0 l/m 0 min 0 min 9 W/m 18,8 km/h (3 Bft) 97,83 %
14.09.2017 07:16 11,3 C 11,1 C 9,4 C 94 % 0 lf 998,5 hPa 0,0 l/m 0 min 0 min 9 W/m 16,7 km/h (3 Bft) 95,74 %
14.09.2017 07:18 11,3 C 11,1 C 9,4 C 94 % 0 lf 998,5 hPa 0,0 l/m 0 min 0 min 9 W/m 12,6 km/h (3 Bft) 94,64 %
14.09.2017 07:20 11,3 C 11,1 C 9,4 C 94 % 0 lf 998,6 hPa 0,0 l/m 0 min 0 min 10 W/m 18,8 km/h (3 Bft) 97,96 %
14.09.2017 07:22 11,3 C 11,1 C 10,0 C 94 % 0 lf 998,6 hPa 0,0 l/m 0 min 0 min 11 W/m 16,7 km/h (3 Bft) 94,44 %
14.09.2017 07:24 11,3 C 11,1 C 10,0 C 94 % 0 lf 998,7 hPa 0,0 l/m 0 min 0 min 12 W/m 16,7 km/h (3 Bft) 97,83 %
14.09.2017 07:26 11,3 C 11,1 C 10,0 C 94 % 0 lf 998,7 hPa 0,0 l/m 0 min 0 min 12 W/m 12,6 km/h (3 Bft) 95,74 %
14.09.2017 07:28 11,4 C 11,7 C 10,0 C 94 % 0 lf 998,7 hPa 0,0 l/m 0 min 0 min 16 W/m 20,9 km/h (4 Bft) 100,00 %
14.09.2017 07:30 11,4 C 11,7 C 10,0 C 94 % 0 lf 998,7 hPa 0,0 l/m 0 min 0 min 19 W/m 14,6 km/h (3 Bft) 97,87 %
14.09.2017 07:32 11,4 C 11,7 C 10,0 C 94 % 0 lf 998,7 hPa 0,0 l/m 0 min 0 min 19 W/m 16,7 km/h (3 Bft) 100,00 %
14.09.2017 07:34 11,4 C 11,7 C 10,0 C 94 % 0 lf 998,8 hPa 0,0 l/m 0 min 0 min 19 W/m 18,8 km/h (3 Bft) 95,74 %
14.09.2017 07:36 11,4 C 11,7 C 10,0 C 94 % 1 lf 998,9 hPa 0,0 l/m 0 min 2 min 21 W/m 14,6 km/h (3 Bft) 100,00 %
14.09.2017 07:38 11,5 C 11,7 C 10,0 C 94 % 2 lf 999,0 hPa 0,0 l/m 0 min 2 min 21 W/m 16,7 km/h (3 Bft) 97,83 %
14.09.2017 07:40 11,5 C 11,7 C 10,0 C 94 % 3 lf 999,0 hPa 0,0 l/m 0 min 0 min 21 W/m 25,1 km/h (4 Bft) 100,00 %
14.09.2017 07:42 11,5 C 11,7 C 10,0 C 94 % 3 lf 999,0 hPa 0,0 l/m 0 min 0 min 22 W/m 20,9 km/h (4 Bft) 95,74 %
14.09.2017 07:44 11,6 C 11,7 C 10,0 C 94 % 2 lf 999,0 hPa 0,0 l/m 0 min 2 min 24 W/m 20,9 km/h (4 Bft) 97,87 %
14.09.2017 07:46 11,6 C 11,7 C 10,0 C 94 % 2 lf 999,0 hPa 0,0 l/m 0 min 2 min 25 W/m 18,8 km/h (3 Bft) 97,87 %
14.09.2017 07:48 11,6 C 11,7 C 10,0 C 94 % 2 lf 999,0 hPa 0,0 l/m 0 min 2 min 26 W/m 25,1 km/h (4 Bft) 100,00 %
14.09.2017 07:50 11,6 C 11,7 C 10,0 C 94 % 2 lf 999,0 hPa 0,0 l/m 0 min 0 min 26 W/m 14,6 km/h (3 Bft) 100,00 %
14.09.2017 07:52 11,6 C 11,7 C 10,0 C 94 % 1 lf 999,0 hPa 0,0 l/m 0 min 0 min 25 W/m 18,8 km/h (3 Bft) 95,12 %
14.09.2017 07:54 11,6 C 11,7 C 10,0 C 93 % 1 lf 999,0 hPa 0,0 l/m 0 min 0 min 25 W/m 12,6 km/h (3 Bft) 100,00 %
14.09.2017 07:56 11,7 C 11,7 C 10,0 C 94 % 1 lf 998,9 hPa 0,0 l/m 0 min 0 min 25 W/m 14,6 km/h (3 Bft) 97,87 %
14.09.2017 07:58 11,7 C 11,7 C 10,0 C 94 % 0 lf 998,9 hPa 0,0 l/m 0 min 0 min 27 W/m 12,6 km/h (3 Bft) 100,00 %
14.09.2017 08:00 11,7 C 11,7 C 10,0 C 94 % 0 lf 998,9 hPa 0,0 l/m 0 min 0 min 32 W/m 18,8 km/h (3 Bft) 100,00 %
14.09.2017 08:02 11,7 C 11,7 C 10,0 C 94 % 0 lf 998,7 hPa 0,0 l/m 0 min 0 min 37 W/m 18,8 km/h (3 Bft) 100,00 %
14.09.2017 08:04 11,7 C 11,7 C 10,0 C 93 % 0 lf 998,7 hPa 0,0 l/m 0 min 0 min 35 W/m 20,9 km/h (4 Bft) 100,00 %
14.09.2017 08:06 11,7 C 11,7 C 10,0 C 93 % 0 lf 998,8 hPa 0,0 l/m 0 min 0 min 33 W/m 23,0 km/h (4 Bft) 97,87 %
14.09.2017 08:08 11,7 C 11,7 C 10,0 C 93 % 0 lf 999,0 hPa 0,0 l/m 0 min 0 min 33 W/m 14,6 km/h (3 Bft) 100,00 %
14.09.2017 08:10 11,7 C 11,7 C 10,0 C 93 % 0 lf 999,0 hPa 0,0 l/m 0 min 0 min 32 W/m 23,0 km/h (4 Bft) 95,74 %
14.09.2017 08:12 11,7 C 11,7 C 10,0 C 93 % 0 lf 999,0 hPa 0,0 l/m 0 min 0 min 33 W/m 14,6 km/h (3 Bft) 100,00 %
14.09.2017 08:14 11,7 C 11,7 C 10,0 C 93 % 0 lf 999,0 hPa 0,0 l/m 0 min 0 min 33 W/m 20,9 km/h (4 Bft) 97,87 %
14.09.2017 08:16 11,7 C 11,7 C 10,0 C 93 % 0 lf 999,0 hPa 0,0 l/m 0 min 0 min 32 W/m 25,1 km/h (4 Bft) 100,00 %
14.09.2017 08:18 11,7 C 11,7 C 10,0 C 93 % 0 lf 998,7 hPa 0,0 l/m 0 min 0 min 33 W/m 20,9 km/h (4 Bft) 100,00 %
14.09.2017 08:20 11,7 C 11,7 C 10,0 C 93 % 0 lf 998,6 hPa 0,0 l/m 0 min 0 min 42 W/m 14,6 km/h (3 Bft) 95,74 %
14.09.2017 08:22 11,7 C 12,2 C 10,0 C 93 % 0 lf 998,4 hPa 0,0 l/m 0 min 0 min 75 W/m 25,1 km/h (4 Bft) 97,87 %
14.09.2017 08:24 11,7 C 12,2 C 10,0 C 93 % 0 lf 998,4 hPa 0,0 l/m 2 min 0 min 102 W/m 16,7 km/h (3 Bft) 100,00 %
14.09.2017 08:26 11,7 C 12,2 C 10,6 C 93 % 0 lf 998,5 hPa 0,0 l/m 0 min 0 min 95 W/m 18,8 km/h (3 Bft) 93,62 %
14.09.2017 08:28 11,7 C 12,2 C 10,6 C 93 % 0 lf 998,6 hPa 0,0 l/m 0 min 0 min 70 W/m 12,6 km/h (3 Bft) 93,62 %
14.09.2017 08:30 11,7 C 12,2 C 10,6 C 92 % 0 lf 998,6 hPa 0,0 l/m 0 min 0 min 70 W/m 18,8 km/h (3 Bft) 97,87 %
14.09.2017 08:32 11,7 C 12,2 C 10,6 C 92 % 0 lf 998,6 hPa 0,0 l/m 0 min 0 min 90 W/m 18,8 km/h (3 Bft) 95,74 %
14.09.2017 08:34 11,7 C 12,8 C 10,6 C 92 % 0 lf 998,5 hPa 0,0 l/m 2 min 0 min 109 W/m 18,8 km/h (3 Bft) 97,87 %
14.09.2017 08:36 11,7 C 12,8 C 10,6 C 92 % 0 lf 998,5 hPa 0,0 l/m 2 min 0 min 129 W/m 14,6 km/h (3 Bft) 95,65 %
14.09.2017 08:38 11,7 C 13,3 C 10,6 C 92 % 0 lf 998,6 hPa 0,0 l/m 2 min 0 min 113 W/m 12,6 km/h (3 Bft) 95,74 %
14.09.2017 08:40 11,7 C 13,3 C 10,6 C 92 % 0 lf 998,6 hPa 0,0 l/m 0 min 0 min 105 W/m 25,1 km/h (4 Bft) 95,74 %
14.09.2017 08:42 11,7 C 12,8 C 10,6 C 92 % 0 lf 998,6 hPa 0,0 l/m 0 min 0 min 114 W/m 20,9 km/h (4 Bft) 95,74 %
14.09.2017 08:44 11,8 C 13,3 C 10,6 C 92 % 0 lf 998,6 hPa 0,0 l/m 0 min 0 min 108 W/m 20,9 km/h (4 Bft) 95,74 %
14.09.2017 08:46 11,8 C 12,8 C 10,6 C 91 % 0 lf 998,7 hPa 0,0 l/m 0 min 0 min 84 W/m 33,5 km/h (5 Bft) 95,74 %
14.09.2017 08:48 11,8 C 12,8 C 10,6 C 91 % 0 lf 998,6 hPa 0,0 l/m 0 min 0 min 85 W/m 31,4 km/h (5 Bft) 93,48 %
14.09.2017 08:50 11,8 C 12,8 C 10,6 C 90 % 0 lf 998,8 hPa 0,0 l/m 0 min 0 min 94 W/m 23,0 km/h (4 Bft) 93,62 %
14.09.2017 08:52 11,8 C 12,8 C 10,6 C 90 % 0 lf 998,9 hPa 0,0 l/m 0 min 0 min 98 W/m 25,1 km/h (4 Bft) 93,62 %
14.09.2017 08:54 11,8 C 12,8 C 10,6 C 90 % 0 lf 998,9 hPa 0,0 l/m 0 min 0 min 96 W/m 20,9 km/h (4 Bft) 100,00 %
14.09.2017 08:56 11,8 C 12,2 C 10,6 C 89 % 0 lf 999,0 hPa 0,0 l/m 0 min 0 min 97 W/m 23,0 km/h (4 Bft) 97,87 %
14.09.2017 08:58 11,8 C 12,2 C 10,6 C 89 % 0 lf 999,0 hPa 0,0 l/m 0 min 0 min 87 W/m 16,7 km/h (3 Bft) 97,87 %
14.09.2017 09:00 11,9 C 12,2 C 10,6 C 89 % 0 lf 999,1 hPa 0,0 l/m 0 min 0 min 72 W/m 18,8 km/h (3 Bft) 93,48 %
14.09.2017 09:02 11,9 C 12,2 C 10,6 C 89 % 0 lf 999,1 hPa 0,0 l/m 0 min 0 min 72 W/m 29,3 km/h (5 Bft) 95,74 %
14.09.2017 09:04 11,9 C 12,2 C 10,6 C 89 % 0 lf 999,2 hPa 0,0 l/m 0 min 0 min 76 W/m 25,1 km/h (4 Bft) 95,74 %
14.09.2017 09:06 11,9 C 12,2 C 10,6 C 88 % 0 lf 999,2 hPa 0,0 l/m 0 min 0 min 80 W/m 23,0 km/h (4 Bft) 93,62 %
14.09.2017 09:08 11,9 C 12,2 C 11,1 C 88 % 0 lf 999,2 hPa 0,0 l/m 0 min 0 min 101 W/m 25,1 km/h (4 Bft) 89,36 %
14.09.2017 09:10 11,9 C 12,8 C 11,1 C 88 % 0 lf 999,3 hPa 0,0 l/m 0 min 0 min 127 W/m 25,1 km/h (4 Bft) 95,65 %
14.09.2017 09:12 11,9 C 12,8 C 11,1 C 88 % 0 lf 999,2 hPa 0,0 l/m 0 min 0 min 142 W/m 25,1 km/h (4 Bft) 95,74 %
14.09.2017 09:14 12,0 C 12,8 C 11,7 C 88 % 0 lf 999,3 hPa 0,0 l/m 0 min 0 min 146 W/m 18,8 km/h (3 Bft) 95,74 %
14.09.2017 09:16 12,0 C 12,8 C 11,7 C 88 % 0 lf 999,2 hPa 0,0 l/m 0 min 0 min 150 W/m 20,9 km/h (4 Bft) 91,49 %
14.09.2017 09:18 12,1 C 12,8 C 11,7 C 88 % 0 lf 999,3 hPa 0,0 l/m 0 min 0 min 131 W/m 20,9 km/h (4 Bft) 95,74 %
14.09.2017 09:20 12,1 C 12,8 C 11,7 C 88 % 0 lf 999,4 hPa 0,0 l/m 0 min 0 min 122 W/m 20,9 km/h (4 Bft) 95,74 %
14.09.2017 09:22 12,1 C 12,8 C 11,7 C 88 % 0 lf 999,3 hPa 0,0 l/m 0 min 0 min 127 W/m 20,9 km/h (4 Bft) 97,83 %
14.09.2017 09:24 12,1 C 12,8 C 11,7 C 88 % 0 lf 999,5 hPa 0,0 l/m 0 min 0 min 118 W/m 25,1 km/h (4 Bft) 89,36 %
14.09.2017 09:26 12,1 C 12,8 C 11,7 C 88 % 0 lf 999,6 hPa 0,0 l/m 0 min 0 min 104 W/m 27,2 km/h (4 Bft) 93,62 %
14.09.2017 09:28 12,1 C 12,8 C 11,1 C 88 % 0 lf 999,5 hPa 0,0 l/m 0 min 2 min 87 W/m 39,7 km/h (6 Bft) 93,62 %
14.09.2017 09:30 12,2 C 12,2 C 11,1 C 88 % 0 lf 999,6 hPa 0,0 l/m 0 min 0 min 72 W/m 27,2 km/h (4 Bft) 95,74 %
14.09.2017 09:32 12,2 C 12,8 C 11,1 C 88 % 1 lf 999,6 hPa 0,0 l/m 0 min 0 min 76 W/m 20,9 km/h (4 Bft) 95,24 %
14.09.2017 09:34 12,2 C 12,8 C 11,1 C 88 % 1 lf 999,6 hPa 0,0 l/m 0 min 2 min 90 W/m 16,7 km/h (3 Bft) 94,12 %
14.09.2017 09:36 12,2 C 12,8 C 11,1 C 88 % 0 lf 999,6 hPa 0,0 l/m 0 min 2 min 110 W/m 25,1 km/h (4 Bft) 93,62 %
14.09.2017 09:38 12,2 C 12,8 C 11,7 C 88 % 0 lf 999,5 hPa 0,0 l/m 0 min 0 min 136 W/m 41,8 km/h (6 Bft) 95,74 %
14.09.2017 09:40 12,2 C 12,8 C 11,7 C 88 % 0 lf 999,5 hPa 0,0 l/m 0 min 0 min 148 W/m 29,3 km/h (5 Bft) 95,74 %
14.09.2017 09:42 12,2 C 12,8 C 11,7 C 88 % 0 lf 999,5 hPa 0,0 l/m 0 min 0 min 150 W/m 27,2 km/h (4 Bft) 91,49 %
14.09.2017 09:44 12,2 C 12,8 C 11,7 C 88 % 0 lf 999,5 hPa 0,0 l/m 0 min 0 min 151 W/m 25,1 km/h (4 Bft) 93,62 %
14.09.2017 09:46 12,3 C 13,3 C 11,7 C 88 % 0 lf 999,5 hPa 0,0 l/m 0 min 2 min 155 W/m 27,2 km/h (4 Bft) 95,65 %
14.09.2017 09:48 12,3 C 13,3 C 11,7 C 88 % 3 lf 999,6 hPa 0,0 l/m 0 min 0 min 151 W/m 16,7 km/h (3 Bft) 93,62 %
14.09.2017 09:50 12,3 C 13,3 C 11,7 C 88 % 4 lf 999,5 hPa 0,0 l/m 0 min 2 min 145 W/m 18,8 km/h (3 Bft) 94,34 %
14.09.2017 09:52 12,3 C 13,9 C 11,7 C 88 % 3 lf 999,6 hPa 0,0 l/m 2 min 0 min 211 W/m 37,7 km/h (5 Bft) 95,12 %
14.09.2017 09:54 12,4 C 13,9 C 11,7 C 87 % 15 lf 999,6 hPa 0,0 l/m 2 min 2 min 294 W/m 29,3 km/h (5 Bft) 95,74 %
14.09.2017 09:56 12,4 C 14,4 C 11,7 C 87 % 15 lf 999,6 hPa 0,0 l/m 2 min 2 min 248 W/m 33,5 km/h (5 Bft) 93,62 %
14.09.2017 09:58 12,4 C 14,4 C 11,1 C 88 % 15 lf 999,6 hPa 0,0 l/m 2 min 2 min 237 W/m 37,7 km/h (5 Bft) 93,48 %
14.09.2017 10:00 12,4 C 14,4 C 11,1 C 87 % 15 lf 999,7 hPa 0,0 l/m 2 min 0 min 264 W/m 41,8 km/h (6 Bft) 91,49 %
14.09.2017 10:02 12,5 C 15,0 C 11,7 C 87 % 14 lf 999,7 hPa 0,0 l/m 2 min 0 min 317 W/m 23,0 km/h (4 Bft) 93,62 %
14.09.2017 10:04 12,6 C 16,1 C 11,7 C 87 % 10 lf 999,7 hPa 0,0 l/m 2 min 0 min 303 W/m 23,0 km/h (4 Bft) 95,74 %
14.09.2017 10:06 12,6 C 15,0 C 11,7 C 87 % 5 lf 999,7 hPa 0,0 l/m 2 min 0 min 306 W/m 25,1 km/h (4 Bft) 95,74 %
14.09.2017 10:08 12,6 C 14,4 C 12,2 C 87 % 3 lf 999,7 hPa 0,0 l/m 0 min 0 min 158 W/m 23,0 km/h (4 Bft) 93,62 %
14.09.2017 10:10 12,7 C 14,4 C 12,2 C 87 % 0 lf 999,7 hPa 0,0 l/m 0 min 0 min 190 W/m 23,0 km/h (4 Bft) 89,13 %
14.09.2017 10:12 12,7 C 13,9 C 12,2 C 87 % 0 lf 999,8 hPa 0,0 l/m 0 min 0 min 156 W/m 37,7 km/h (5 Bft) 97,87 %
14.09.2017 10:14 12,7 C 13,3 C 12,2 C 86 % 0 lf 999,7 hPa 0,0 l/m 0 min 0 min 130 W/m 39,7 km/h (6 Bft) 100,00 %
14.09.2017 10:16 12,7 C 13,3 C 12,2 C 86 % 0 lf 999,9 hPa 0,0 l/m 0 min 0 min 131 W/m 43,9 km/h (6 Bft) 97,87 %
14.09.2017 10:18 12,7 C 13,3 C 12,2 C 85 % 0 lf 999,9 hPa 0,0 l/m 0 min 0 min 122 W/m 31,4 km/h (5 Bft) 95,74 %
14.09.2017 10:20 12,7 C 13,3 C 12,2 C 85 % 0 lf 999,9 hPa 0,0 l/m 0 min 0 min 146 W/m 37,7 km/h (5 Bft) 97,83 %
14.09.2017 10:22 12,7 C 13,3 C 12,2 C 85 % 0 lf 1000,0 hPa 0,0 l/m 0 min 0 min 166 W/m 35,6 km/h (5 Bft) 97,87 %
14.09.2017 10:24 12,7 C 13,3 C 12,2 C 85 % 0 lf 1000,0 hPa 0,0 l/m 0 min 0 min 169 W/m 33,5 km/h (5 Bft) 95,74 %
14.09.2017 10:26 12,7 C 13,9 C 12,8 C 85 % 0 lf 1000,0 hPa 0,0 l/m 0 min 0 min 203 W/m 39,7 km/h (6 Bft) 95,74 %
14.09.2017 10:28 12,7 C 14,4 C 13,3 C 85 % 0 lf 1000,1 hPa 0,0 l/m 2 min 0 min 274 W/m 37,7 km/h (5 Bft) 97,87 %
14.09.2017 10:30 12,7 C 15,0 C 13,3 C 85 % 0 lf 1000,1 hPa 0,0 l/m 2 min 0 min 257 W/m 39,7 km/h (6 Bft) 93,48 %
14.09.2017 10:32 12,8 C 14,4 C 12,8 C 84 % 0 lf 1000,1 hPa 0,0 l/m 0 min 0 min 211 W/m 29,3 km/h (5 Bft) 95,74 %
14.09.2017 10:34 12,8 C 14,4 C 12,8 C 84 % 0 lf 1000,5 hPa 0,0 l/m 0 min 0 min 184 W/m 56,5 km/h (7 Bft) 95,74 %
14.09.2017 10:36 12,8 C 13,9 C 12,8 C 84 % 0 lf 1000,2 hPa 0,0 l/m 0 min 0 min 153 W/m 37,7 km/h (5 Bft) 100,00 %
14.09.2017 10:38 12,8 C 13,9 C 12,2 C 84 % 0 lf 1000,2 hPa 0,0 l/m 0 min 0 min 136 W/m 39,7 km/h (6 Bft) 96,61 %
14.09.2017 10:40 12,8 C 15,0 C 13,3 C 84 % 0 lf 1000,3 hPa 0,0 l/m 2 min 0 min 417 W/m 25,1 km/h (4 Bft) 97,87 %
14.09.2017 10:42 12,9 C 15,6 C 13,3 C 84 % 0 lf 1000,4 hPa 0,0 l/m 0 min 0 min 249 W/m 33,5 km/h (5 Bft) 95,74 %
14.09.2017 10:44 12,9 C 17,2 C 13,3 C 83 % 0 lf 1000,2 hPa 0,0 l/m 0 min 0 min 171 W/m 31,4 km/h (5 Bft) 98,11 %
14.09.2017 10:46 13,0 C 17,2 C 13,3 C 83 % 0 lf 1000,3 hPa 0,0 l/m 0 min 0 min 197 W/m 43,9 km/h (6 Bft) 97,87 %
14.09.2017 10:48 13,1 C 18,3 C 13,9 C 83 % 0 lf 1000,4 hPa 0,0 l/m 2 min 0 min 309 W/m 29,3 km/h (5 Bft) 95,74 %
14.09.2017 10:50 13,2 C 17,8 C 14,4 C 83 % 0 lf 1000,2 hPa 0,0 l/m 2 min 0 min 302 W/m 23,0 km/h (4 Bft) 89,36 %
14.09.2017 10:52 13,4 C 17,2 C 14,4 C 83 % 0 lf 1000,3 hPa 0,0 l/m 0 min 0 min 244 W/m 29,3 km/h (5 Bft) 100,00 %
14.09.2017 10:54 13,4 C 17,2 C 14,4 C 83 % 0 lf 1000,3 hPa 0,0 l/m 0 min 0 min 251 W/m 25,1 km/h (4 Bft) 95,74 %
14.09.2017 10:56 13,5 C 16,7 C 15,0 C 82 % 0 lf 1000,3 hPa 0,0 l/m 2 min 0 min 334 W/m 48,1 km/h (6 Bft) 100,00 %
14.09.2017 10:58 13,6 C 16,7 C 15,0 C 82 % 0 lf 1000,2 hPa 0,0 l/m 2 min 0 min 301 W/m 37,7 km/h (5 Bft) 100,00 %
14.09.2017 11:00 13,6 C 17,8 C 16,1 C 81 % 0 lf 1000,3 hPa 0,0 l/m 0 min 0 min 236 W/m 35,6 km/h (5 Bft) 97,87 %
14.09.2017 11:02 13,7 C 19,4 C 17,2 C 81 % 0 lf 1000,3 hPa 0,0 l/m 0 min 0 min 236 W/m 41,8 km/h (6 Bft) 100,00 %
14.09.2017 11:04 13,8 C 16,7 C 15,6 C 80 % 0 lf 1000,3 hPa 0,0 l/m 2 min 0 min 272 W/m 52,3 km/h (7 Bft) 100,00 %
14.09.2017 11:06 13,8 C 16,1 C 15,0 C 79 % 0 lf 1000,3 hPa 0,0 l/m 2 min 0 min 298 W/m 35,6 km/h (5 Bft) 95,74 %
14.09.2017 11:08 13,8 C 17,2 C 15,6 C 78 % 0 lf 1000,3 hPa 0,0 l/m 0 min 0 min 255 W/m 54,4 km/h (7 Bft) 97,87 %
14.09.2017 11:10 13,8 C 16,1 C 15,0 C 78 % 0 lf 1000,3 hPa 0,0 l/m 0 min 0 min 243 W/m 46,0 km/h (6 Bft) 100,00 %
14.09.2017 11:12 13,8 C 15,6 C 13,9 C 78 % 0 lf 1000,4 hPa 0,0 l/m 0 min 0 min 186 W/m 43,9 km/h (6 Bft) 97,87 %
14.09.2017 11:14 13,7 C 14,4 C 13,3 C 78 % 0 lf 1000,4 hPa 0,0 l/m 0 min 0 min 99 W/m 39,7 km/h (6 Bft) 100,00 %
14.09.2017 11:16 13,6 C 13,9 C 12,8 C 77 % 0 lf 1000,4 hPa 0,0 l/m 0 min 0 min 72 W/m 37,7 km/h (5 Bft) 100,00 %
14.09.2017 11:18 13,5 C 13,3 C 12,2 C 78 % 0 lf 1000,5 hPa 0,0 l/m 0 min 0 min 68 W/m 37,7 km/h (5 Bft) 100,00 %
14.09.2017 11:20 13,4 C 13,3 C 12,2 C 78 % 0 lf 1000,5 hPa 0,0 l/m 0 min 0 min 69 W/m 35,6 km/h (5 Bft) 100,00 %
14.09.2017 11:22 13,3 C 13,3 C 12,2 C 78 % 0 lf 1000,5 hPa 0,0 l/m 0 min 0 min 80 W/m 37,7 km/h (5 Bft) 97,87 %
14.09.2017 11:24 13,2 C 13,3 C 12,2 C 79 % 0 lf 1000,5 hPa 0,0 l/m 0 min 0 min 97 W/m 23,0 km/h (4 Bft) 93,62 %
14.09.2017 11:26 13,2 C 13,3 C 12,2 C 79 % 0 lf 1000,6 hPa 0,0 l/m 0 min 0 min 110 W/m 35,6 km/h (5 Bft) 97,83 %
14.09.2017 11:28 13,1 C 13,3 C 12,2 C 79 % 0 lf 1000,5 hPa 0,0 l/m 0 min 0 min 116 W/m 29,3 km/h (5 Bft) 97,50 %
14.09.2017 11:30 13,1 C 13,9 C 12,2 C 80 % 0 lf 1000,5 hPa 0,0 l/m 0 min 0 min 131 W/m 27,2 km/h (4 Bft) 97,87 %
14.09.2017 11:32 13,1 C 13,9 C 12,8 C 80 % 0 lf 1000,6 hPa 0,0 l/m 0 min 0 min 163 W/m 33,5 km/h (5 Bft) 97,87 %
14.09.2017 11:34 13,1 C 14,4 C 13,3 C 80 % 0 lf 1000,6 hPa 0,0 l/m 0 min 0 min 208 W/m 27,2 km/h (4 Bft) 95,74 %
14.09.2017 11:36 13,1 C 15,0 C 13,3 C 80 % 0 lf 1000,6 hPa 0,0 l/m 0 min 0 min 244 W/m 37,7 km/h (5 Bft) 97,87 %
14.09.2017 11:38 13,1 C 16,7 C 14,4 C 80 % 0 lf 1000,6 hPa 0,0 l/m 2 min 0 min 308 W/m 43,9 km/h (6 Bft) 97,96 %
14.09.2017 11:40 13,2 C 15,6 C 14,4 C 80 % 0 lf 1000,6 hPa 0,0 l/m 0 min 0 min 252 W/m 41,8 km/h (6 Bft) 97,83 %
14.09.2017 11:42 13,3 C 15,0 C 13,9 C 80 % 0 lf 1000,7 hPa 0,0 l/m 0 min 0 min 196 W/m 31,4 km/h (5 Bft) 93,62 %
14.09.2017 11:44 13,3 C 14,4 C 13,3 C 80 % 0 lf 1000,7 hPa 0,0 l/m 0 min 0 min 138 W/m 35,6 km/h (5 Bft) 93,62 %
14.09.2017 11:46 13,3 C 13,9 C 13,3 C 80 % 0 lf 1000,7 hPa 0,0 l/m 0 min 0 min 137 W/m 37,7 km/h (5 Bft) 97,87 %
14.09.2017 11:48 13,3 C 13,9 C 13,3 C 79 % 0 lf 1000,8 hPa 0,0 l/m 0 min 0 min 176 W/m 33,5 km/h (5 Bft) 97,87 %
14.09.2017 11:50 13,3 C 14,4 C 13,3 C 79 % 0 lf 1000,7 hPa 0,0 l/m 0 min 0 min 219 W/m 29,3 km/h (5 Bft) 97,87 %
14.09.2017 11:52 13,3 C 17,8 C 15,6 C 80 % 0 lf 1000,8 hPa 0,0 l/m 0 min 0 min 255 W/m 20,9 km/h (4 Bft) 95,65 %
14.09.2017 11:54 13,4 C 20,0 C 17,2 C 81 % 0 lf 1000,9 hPa 0,0 l/m 2 min 0 min 696 W/m 52,3 km/h (7 Bft) 97,87 %
14.09.2017 11:56 13,6 C 20,6 C 17,8 C 80 % 0 lf 1000,8 hPa 0,0 l/m 2 min 0 min 743 W/m 33,5 km/h (5 Bft) 97,87 %
14.09.2017 11:58 13,8 C 20,0 C 18,3 C 80 % 0 lf 1000,7 hPa 0,0 l/m 2 min 0 min 740 W/m 31,4 km/h (5 Bft) 95,74 %
14.09.2017 12:00 13,9 C 20,0 C 17,8 C 79 % 0 lf 1000,8 hPa 0,0 l/m 2 min 0 min 726 W/m 33,5 km/h (5 Bft) 97,87 %
14.09.2017 12:02 14,2 C 20,0 C 18,3 C 78 % 0 lf 1001,0 hPa 0,0 l/m 2 min 0 min 708 W/m 29,3 km/h (5 Bft) 95,65 %
14.09.2017 12:04 14,2 C 21,1 C 18,9 C 78 % 0 lf 1001,0 hPa 0,0 l/m 2 min 0 min 716 W/m 35,6 km/h (5 Bft) 97,87 %
14.09.2017 12:06 14,4 C 21,7 C 19,4 C 79 % 0 lf 1001,1 hPa 0,0 l/m 2 min 0 min 750 W/m 37,7 km/h (5 Bft) 95,74 %
14.09.2017 12:10 14,7 C 21,7 C 19,4 C 77 % 0 lf 1001,1 hPa 0,0 l/m 4 min 0 min 770 W/m 39,7 km/h (6 Bft) 96,84 %
14.09.2017 12:12 14,9 C 22,2 C 20,0 C 76 % 0 lf 1001,3 hPa 0,0 l/m 2 min 0 min 668 W/m 48,1 km/h (6 Bft) 100,00 %
14.09.2017 12:14 15,0 C 21,7 C 19,4 C 75 % 0 lf 1001,1 hPa 0,0 l/m 2 min 0 min 784 W/m 37,7 km/h (5 Bft) 97,87 %
14.09.2017 12:16 15,1 C 20,6 C 18,9 C 74 % 0 lf 1001,3 hPa 0,0 l/m 2 min 0 min 784 W/m 48,1 km/h (6 Bft) 95,74 %
14.09.2017 12:18 15,1 C 20,0 C 17,8 C 74 % 0 lf 1001,2 hPa 0,0 l/m 2 min 0 min 784 W/m 37,7 km/h (5 Bft) 97,83 %
14.09.2017 12:20 15,0 C 17,8 C 16,7 C 74 % 0 lf 1001,2 hPa 0,0 l/m 2 min 0 min 784 W/m 33,5 km/h (5 Bft) 97,87 %
14.09.2017 12:22 14,9 C 17,2 C 15,6 C 74 % 0 lf 1001,2 hPa 0,0 l/m 0 min 0 min 256 W/m 29,3 km/h (5 Bft) 100,00 %
14.09.2017 12:24 14,9 C 17,2 C 16,1 C 74 % 0 lf 1001,3 hPa 0,0 l/m 0 min 0 min 297 W/m 20,9 km/h (4 Bft) 100,00 %
14.09.2017 12:26 14,9 C 20,0 C 17,8 C 75 % 0 lf 1001,3 hPa 0,0 l/m 2 min 0 min 461 W/m 43,9 km/h (6 Bft) 95,74 %
14.09.2017 12:28 14,9 C 20,6 C 17,8 C 75 % 0 lf 1001,4 hPa 0,0 l/m 2 min 0 min 786 W/m 46,0 km/h (6 Bft) 97,87 %
14.09.2017 12:30 15,1 C 21,1 C 18,9 C 75 % 0 lf 1001,3 hPa 0,0 l/m 2 min 0 min 810 W/m 27,2 km/h (4 Bft) 93,48 %
14.09.2017 12:32 15,1 C 20,6 C 18,3 C 74 % 0 lf 1001,3 hPa 0,0 l/m 2 min 0 min 810 W/m 43,9 km/h (6 Bft) 91,49 %
14.09.2017 12:34 15,2 C 20,0 C 17,8 C 73 % 0 lf 1001,4 hPa 0,0 l/m 2 min 0 min 594 W/m 39,7 km/h (6 Bft) 93,62 %
14.09.2017 12:36 15,2 C 17,8 C 16,7 C 73 % 0 lf 1001,4 hPa 0,0 l/m 2 min 0 min 339 W/m 54,4 km/h (7 Bft) 91,49 %
14.09.2017 12:38 15,1 C 16,7 C 15,6 C 73 % 0 lf 1001,5 hPa 0,0 l/m 0 min 0 min 246 W/m 39,7 km/h (6 Bft) 91,49 %
14.09.2017 12:40 14,9 C 15,6 C 15,0 C 73 % 1 lf 1001,5 hPa 0,0 l/m 0 min 0 min 251 W/m 41,8 km/h (6 Bft) 93,48 %
14.09.2017 12:42 14,7 C 15,0 C 14,4 C 74 % 5 lf 1001,6 hPa 0,0 l/m 0 min 0 min 270 W/m 52,3 km/h (7 Bft) 93,62 %
14.09.2017 12:44 14,6 C 15,6 C 13,9 C 75 % 3 lf 1001,4 hPa 0,0 l/m 0 min 2 min 306 W/m 48,1 km/h (6 Bft) 91,49 %
14.09.2017 12:46 14,3 C 15,6 C 13,3 C 76 % 1 lf 1001,5 hPa 0,0 l/m 0 min 2 min 301 W/m 31,4 km/h (5 Bft) 93,62 %
14.09.2017 12:48 14,2 C 16,7 C 13,9 C 77 % 0 lf 1001,5 hPa 0,0 l/m 0 min 0 min 275 W/m 29,3 km/h (5 Bft) 93,62 %
14.09.2017 12:50 14,2 C 17,2 C 15,0 C 78 % 0 lf 1001,4 hPa 0,0 l/m 0 min 0 min 307 W/m 27,2 km/h (4 Bft) 91,49 %
14.09.2017 12:52 14,2 C 17,8 C 15,6 C 78 % 0 lf 1001,4 hPa 0,0 l/m 2 min 0 min 353 W/m 43,9 km/h (6 Bft) 93,48 %
14.09.2017 12:54 14,3 C 17,2 C 15,6 C 78 % 0 lf 1001,5 hPa 0,0 l/m 0 min 0 min 313 W/m 31,4 km/h (5 Bft) 93,62 %
14.09.2017 12:56 14,3 C 17,8 C 15,6 C 78 % 0 lf 1001,6 hPa 0,0 l/m 2 min 0 min 336 W/m 31,4 km/h (5 Bft) 91,49 %
14.09.2017 12:58 14,4 C 17,2 C 15,6 C 78 % 0 lf 1001,5 hPa 0,0 l/m 0 min 0 min 320 W/m 35,6 km/h (5 Bft) 91,49 %
14.09.2017 13:00 14,4 C 16,1 C 15,0 C 77 % 0 lf 1001,5 hPa 0,0 l/m 0 min 0 min 222 W/m 43,9 km/h (6 Bft) 89,36 %
14.09.2017 13:02 14,4 C 15,6 C 14,4 C 76 % 0 lf 1001,7 hPa 0,0 l/m 0 min 0 min 208 W/m 48,1 km/h (6 Bft) 89,36 %
14.09.2017 13:04 14,3 C 15,0 C 13,9 C 75 % 2 lf 1001,6 hPa 0,0 l/m 0 min 2 min 119 W/m 27,2 km/h (4 Bft) 91,30 %
14.09.2017 13:06 14,2 C 13,9 C 12,8 C 76 % 15 lf 1001,9 hPa 0,0 l/m 0 min 2 min 86 W/m 33,5 km/h (5 Bft) 89,36 %
14.09.2017 13:08 14,2 C 12,2 C 11,1 C 77 % 15 lf 1001,9 hPa 0,2 l/m 0 min 2 min 92 W/m 41,8 km/h (6 Bft) 91,49 %
14.09.2017 13:10 14,0 C 12,2 C 11,1 C 78 % 15 lf 1002,2 hPa 0,0 l/m 0 min 2 min 171 W/m 54,4 km/h (7 Bft) 95,74 %
14.09.2017 13:12 13,9 C 13,9 C 12,2 C 81 % 15 lf 1002,2 hPa 0,0 l/m 2 min 2 min 345 W/m 33,5 km/h (5 Bft) 97,87 %
14.09.2017 13:14 13,8 C 14,4 C 11,7 C 82 % 15 lf 1002,1 hPa 0,0 l/m 2 min 2 min 340 W/m 23,0 km/h (4 Bft) 97,87 %
14.09.2017 13:16 13,6 C 13,3 C 11,1 C 82 % 15 lf 1002,0 hPa 0,0 l/m 0 min 2 min 227 W/m 33,5 km/h (5 Bft) 95,65 %
14.09.2017 13:18 13,4 C 12,8 C 10,6 C 83 % 15 lf 1002,0 hPa 0,0 l/m 0 min 2 min 130 W/m 31,4 km/h (5 Bft) 97,87 %
14.09.2017 13:20 13,3 C 12,8 C 10,6 C 83 % 15 lf 1002,0 hPa 0,0 l/m 0 min 0 min 111 W/m 25,1 km/h (4 Bft) 97,87 %
14.09.2017 13:22 13,1 C 12,8 C 10,6 C 83 % 15 lf 1002,0 hPa 0,0 l/m 0 min 0 min 108 W/m 23,0 km/h (4 Bft) 97,87 %
14.09.2017 13:24 12,9 C 13,3 C 10,6 C 83 % 15 lf 1002,0 hPa 0,0 l/m 0 min 0 min 119 W/m 23,0 km/h (4 Bft) 91,49 %
14.09.2017 13:26 12,9 C 16,7 C 11,1 C 84 % 15 lf 1002,0 hPa 0,0 l/m 2 min 0 min 388 W/m 25,1 km/h (4 Bft) 97,87 %
14.09.2017 13:28 12,9 C 19,4 C 12,2 C 84 % 15 lf 1001,9 hPa 0,0 l/m 2 min 2 min 723 W/m 18,8 km/h (3 Bft) 100,00 %
14.09.2017 13:30 13,1 C 21,1 C 12,8 C 86 % 15 lf 1001,9 hPa 0,0 l/m 2 min 0 min 821 W/m 25,1 km/h (4 Bft) 100,00 %
14.09.2017 13:32 13,3 C 20,0 C 12,8 C 86 % 15 lf 1001,8 hPa 0,0 l/m 2 min 0 min 856 W/m 27,2 km/h (4 Bft) 100,00 %
14.09.2017 13:34 13,4 C 18,3 C 12,2 C 86 % 15 lf 1001,8 hPa 0,0 l/m 0 min 2 min 263 W/m 25,1 km/h (4 Bft) 100,00 %
14.09.2017 13:36 13,4 C 16,1 C 12,2 C 85 % 15 lf 1001,8 hPa 0,0 l/m 0 min 2 min 172 W/m 31,4 km/h (5 Bft) 100,00 %
14.09.2017 13:38 13,5 C 15,0 C 11,7 C 84 % 15 lf 1002,0 hPa 0,0 l/m 0 min 2 min 169 W/m 39,7 km/h (6 Bft) 100,00 %
14.09.2017 13:40 13,4 C 13,9 C 11,7 C 83 % 15 lf 1002,0 hPa 0,0 l/m 0 min 2 min 116 W/m 33,5 km/h (5 Bft) 95,65 %
14.09.2017 13:42 13,4 C 13,3 C 11,1 C 82 % 15 lf 1002,0 hPa 0,0 l/m 0 min 2 min 65 W/m 29,3 km/h (5 Bft) 100,00 %
14.09.2017 13:44 13,4 C 12,2 C 11,1 C 81 % 15 lf 1002,2 hPa 0,0 l/m 0 min 2 min 53 W/m 39,7 km/h (6 Bft) 97,87 %
14.09.2017 13:46 13,3 C 11,7 C 10,6 C 81 % 15 lf 1002,3 hPa 0,0 l/m 0 min 2 min 67 W/m 39,7 km/h (6 Bft) 100,00 %
14.09.2017 13:48 13,2 C 11,1 C 10,0 C 82 % 15 lf 1002,2 hPa 0,0 l/m 0 min 2 min 82 W/m 27,2 km/h (4 Bft) 100,00 %
14.09.2017 13:50 13,1 C 11,7 C 10,6 C 82 % 15 lf 1002,3 hPa 0,0 l/m 0 min 2 min 106 W/m 29,3 km/h (5 Bft) 100,00 %
14.09.2017 13:52 13,0 C 11,7 C 10,6 C 83 % 15 lf 1002,1 hPa 0,0 l/m 0 min 2 min 126 W/m 35,6 km/h (5 Bft) 97,83 %
14.09.2017 13:54 12,9 C 12,2 C 10,6 C 83 % 15 lf 1002,3 hPa 0,0 l/m 0 min 2 min 163 W/m 31,4 km/h (5 Bft) 100,00 %
14.09.2017 13:56 12,8 C 12,8 C 10,6 C 84 % 15 lf 1002,3 hPa 0,0 l/m 0 min 2 min 236 W/m 41,8 km/h (6 Bft) 97,87 %
14.09.2017 13:58 12,8 C 13,3 C 10,6 C 84 % 15 lf 1002,3 hPa 0,0 l/m 0 min 0 min 192 W/m 29,3 km/h (5 Bft) 100,00 %
14.09.2017 14:00 12,7 C 12,8 C 10,6 C 84 % 15 lf 1002,5 hPa 0,0 l/m 0 min 2 min 138 W/m 43,9 km/h (6 Bft) 97,87 %
14.09.2017 14:02 12,6 C 12,2 C 10,0 C 84 % 15 lf 1002,4 hPa 0,0 l/m 0 min 2 min 131 W/m 58,6 km/h (7 Bft) 97,83 %
14.09.2017 14:04 12,4 C 11,7 C 10,0 C 84 % 15 lf 1002,4 hPa 0,0 l/m 0 min 2 min 139 W/m 39,7 km/h (6 Bft) 100,00 %
14.09.2017 14:06 12,2 C 12,2 C 10,0 C 83 % 15 lf 1002,4 hPa 0,0 l/m 0 min 2 min 209 W/m 39,7 km/h (6 Bft) 97,87 %
14.09.2017 14:08 12,2 C 13,9 C 10,6 C 84 % 15 lf 1002,4 hPa 0,0 l/m 0 min 2 min 286 W/m 33,5 km/h (5 Bft) 97,87 %
14.09.2017 14:10 12,2 C 16,1 C 10,6 C 84 % 11 lf 1002,4 hPa 0,0 l/m 0 min 2 min 288 W/m 29,3 km/h (5 Bft) 95,74 %
14.09.2017 14:12 12,3 C 17,8 C 10,6 C 84 % 3 lf 1002,3 hPa 0,0 l/m 2 min 2 min 619 W/m 33,5 km/h (5 Bft) 97,87 %
14.09.2017 14:14 12,4 C 19,4 C 11,1 C 84 % 1 lf 1002,3 hPa 0,0 l/m 2 min 0 min 681 W/m 33,5 km/h (5 Bft) 97,83 %
14.09.2017 14:16 12,5 C 19,4 C 11,7 C 84 % 0 lf 1002,3 hPa 0,0 l/m 2 min 2 min 678 W/m 39,7 km/h (6 Bft) 95,74 %
14.09.2017 14:18 12,7 C 20,0 C 11,7 C 84 % 0 lf 1002,2 hPa 0,0 l/m 2 min 0 min 679 W/m 31,4 km/h (5 Bft) 97,87 %
14.09.2017 14:20 12,9 C 19,4 C 11,7 C 84 % 0 lf 1002,2 hPa 0,0 l/m 2 min 0 min 502 W/m 37,7 km/h (5 Bft) 95,74 %
14.09.2017 14:22 13,0 C 20,0 C 11,7 C 83 % 0 lf 1002,3 hPa 0,0 l/m 2 min 0 min 639 W/m 46,0 km/h (6 Bft) 95,74 %
14.09.2017 14:24 13,2 C 20,6 C 11,7 C 83 % 0 lf 1002,2 hPa 0,0 l/m 2 min 0 min 671 W/m 29,3 km/h (5 Bft) 97,87 %
14.09.2017 14:26 13,4 C 21,1 C 12,2 C 83 % 0 lf 1002,2 hPa 0,0 l/m 2 min 0 min 670 W/m 31,4 km/h (5 Bft) 97,83 %
14.09.2017 14:28 13,6 C 20,6 C 12,2 C 82 % 0 lf 1002,3 hPa 0,0 l/m 2 min 0 min 670 W/m 37,7 km/h (5 Bft) 95,74 %
14.09.2017 14:30 13,7 C 20,6 C 12,8 C 82 % 0 lf 1002,3 hPa 0,0 l/m 2 min 0 min 668 W/m 39,7 km/h (6 Bft) 97,87 %
14.09.2017 14:32 13,9 C 20,0 C 12,8 C 81 % 0 lf 1002,3 hPa 0,0 l/m 2 min 0 min 668 W/m 41,8 km/h (6 Bft) 95,74 %
14.09.2017 14:34 14,2 C 20,0 C 12,8 C 81 % 0 lf 1002,2 hPa 0,0 l/m 2 min 0 min 671 W/m 41,8 km/h (6 Bft) 95,74 %
14.09.2017 14:36 14,2 C 21,1 C 13,3 C 81 % 0 lf 1002,2 hPa 0,0 l/m 2 min 0 min 716 W/m 31,4 km/h (5 Bft) 95,74 %
14.09.2017 14:38 14,4 C 19,4 C 13,3 C 80 % 0 lf 1002,3 hPa 0,0 l/m 2 min 0 min 758 W/m 56,5 km/h (7 Bft) 97,87 %
14.09.2017 14:40 14,5 C 20,6 C 13,9 C 79 % 0 lf 1002,3 hPa 0,0 l/m 2 min 0 min 758 W/m 46,0 km/h (6 Bft) 95,65 %
14.09.2017 14:42 14,7 C 20,6 C 14,4 C 80 % 0 lf 1002,3 hPa 0,0 l/m 2 min 0 min 779 W/m 46,0 km/h (6 Bft) 97,87 %
14.09.2017 14:44 14,8 C 20,0 C 15,0 C 78 % 0 lf 1002,3 hPa 0,0 l/m 2 min 0 min 856 W/m 48,1 km/h (6 Bft) 97,87 %
14.09.2017 14:46 14,9 C 18,9 C 14,4 C 78 % 0 lf 1002,2 hPa 0,0 l/m 2 min 0 min 798 W/m 46,0 km/h (6 Bft) 97,87 %
14.09.2017 14:48 14,9 C 18,9 C 14,4 C 77 % 0 lf 1002,3 hPa 0,0 l/m 2 min 0 min 329 W/m 48,1 km/h (6 Bft) 93,62 %
14.09.2017 14:50 14,9 C 18,3 C 14,4 C 76 % 0 lf 1002,5 hPa 0,0 l/m 0 min 0 min 277 W/m 46,0 km/h (6 Bft) 95,65 %
14.09.2017 14:52 14,9 C 17,2 C 15,0 C 76 % 0 lf 1002,3 hPa 0,0 l/m 0 min 0 min 304 W/m 39,7 km/h (6 Bft) 93,62 %
14.09.2017 14:54 14,9 C 17,2 C 15,0 C 75 % 0 lf 1002,4 hPa 0,0 l/m 2 min 0 min 308 W/m 56,5 km/h (7 Bft) 97,87 %
14.09.2017 14:56 14,9 C 17,2 C 15,6 C 74 % 0 lf 1002,5 hPa 0,0 l/m 0 min 0 min 305 W/m 52,3 km/h (7 Bft) 95,74 %
14.09.2017 14:58 14,9 C 16,7 C 15,0 C 73 % 0 lf 1002,4 hPa 0,0 l/m 0 min 0 min 302 W/m 56,5 km/h (7 Bft) 93,62 %
14.09.2017 15:00 14,8 C 15,6 C 14,4 C 72 % 0 lf 1002,4 hPa 0,0 l/m 0 min 0 min 263 W/m 69,0 km/h (8 Bft) 97,87 %
14.09.2017 15:02 14,8 C 15,6 C 14,4 C 71 % 0 lf 1002,4 hPa 0,0 l/m 0 min 0 min 271 W/m 56,5 km/h (7 Bft) 95,65 %
14.09.2017 15:04 14,7 C 15,6 C 14,4 C 71 % 0 lf 1002,3 hPa 0,0 l/m 0 min 0 min 295 W/m 58,6 km/h (7 Bft) 97,87 %
14.09.2017 15:06 14,6 C 15,6 C 14,4 C 71 % 0 lf 1002,4 hPa 0,0 l/m 0 min 0 min 235 W/m 60,7 km/h (7 Bft) 95,74 %
14.09.2017 15:08 14,6 C 15,0 C 13,9 C 72 % 0 lf 1002,6 hPa 0,0 l/m 0 min 0 min 183 W/m 62,8 km/h (8 Bft) 97,87 %
14.09.2017 15:10 14,5 C 15,0 C 13,9 C 72 % 0 lf 1002,6 hPa 0,0 l/m 0 min 0 min 161 W/m 50,2 km/h (7 Bft) 97,87 %
14.09.2017 15:12 14,4 C 14,4 C 13,3 C 73 % 1 lf 1002,5 hPa 0,0 l/m 0 min 0 min 106 W/m 48,1 km/h (6 Bft) 95,74 %
14.09.2017 15:14 14,3 C 14,4 C 12,8 C 73 % 4 lf 1002,6 hPa 0,0 l/m 0 min 2 min 126 W/m 54,4 km/h (7 Bft) 95,65 %
14.09.2017 15:16 14,2 C 13,9 C 12,2 C 75 % 1 lf 1002,7 hPa 0,0 l/m 0 min 2 min 149 W/m 50,2 km/h (7 Bft) 95,74 %
14.09.2017 15:18 14,2 C 13,9 C 12,2 C 75 % 3 lf 1002,5 hPa 0,0 l/m 0 min 2 min 128 W/m 46,0 km/h (6 Bft) 97,87 %
14.09.2017 15:20 14,1 C 13,3 C 12,2 C 76 % 14 lf 1002,6 hPa 0,0 l/m 0 min 2 min 144 W/m 43,9 km/h (6 Bft) 95,74 %
14.09.2017 15:22 13,9 C 13,3 C 12,2 C 78 % 9 lf 1002,7 hPa 0,0 l/m 0 min 2 min 212 W/m 41,8 km/h (6 Bft) 95,74 %
14.09.2017 15:24 13,8 C 13,9 C 12,8 C 78 % 4 lf 1002,8 hPa 0,0 l/m 0 min 2 min 234 W/m 35,6 km/h (5 Bft) 91,30 %
14.09.2017 15:26 13,7 C 13,9 C 12,8 C 79 % 1 lf 1002,9 hPa 0,0 l/m 0 min 2 min 246 W/m 48,1 km/h (6 Bft) 95,74 %
14.09.2017 15:28 13,7 C 13,9 C 12,8 C 78 % 0 lf 1002,9 hPa 0,0 l/m 0 min 2 min 245 W/m 39,7 km/h (6 Bft) 97,87 %
14.09.2017 15:30 13,6 C 14,4 C 13,3 C 78 % 0 lf 1002,8 hPa 0,0 l/m 0 min 2 min 240 W/m 43,9 km/h (6 Bft) 95,74 %
14.09.2017 15:32 13,6 C 14,4 C 13,3 C 78 % 0 lf 1002,9 hPa 0,0 l/m 0 min 2 min 240 W/m 39,7 km/h (6 Bft) 97,87 %
14.09.2017 15:34 13,6 C 14,4 C 13,9 C 79 % 0 lf 1002,9 hPa 0,0 l/m 0 min 2 min 231 W/m 33,5 km/h (5 Bft) 95,74 %
14.09.2017 15:36 13,6 C 14,4 C 13,9 C 78 % 0 lf 1002,9 hPa 0,0 l/m 0 min 2 min 222 W/m 35,6 km/h (5 Bft) 95,65 %
14.09.2017 15:38 13,6 C 14,4 C 13,9 C 78 % 0 lf 1003,0 hPa 0,0 l/m 0 min 0 min 222 W/m 43,9 km/h (6 Bft) 95,74 %
14.09.2017 15:40 13,6 C 14,4 C 13,9 C 77 % 0 lf 1003,0 hPa 0,0 l/m 0 min 0 min 219 W/m 37,7 km/h (5 Bft) 93,62 %
14.09.2017 15:42 13,6 C 14,4 C 13,9 C 77 % 0 lf 1003,0 hPa 0,0 l/m 0 min 0 min 227 W/m 33,5 km/h (5 Bft) 95,65 %
14.09.2017 15:44 13,6 C 14,4 C 13,9 C 77 % 0 lf 1003,0 hPa 0,0 l/m 0 min 0 min 243 W/m 33,5 km/h (5 Bft) 95,74 %
14.09.2017 15:46 13,6 C 14,4 C 13,9 C 77 % 0 lf 1003,0 hPa 0,0 l/m 0 min 0 min 218 W/m 31,4 km/h (5 Bft) 95,74 %
14.09.2017 15:48 13,6 C 14,4 C 13,9 C 77 % 0 lf 1003,0 hPa 0,0 l/m 0 min 0 min 197 W/m 52,3 km/h (7 Bft) 95,65 %
14.09.2017 15:50 13,6 C 14,4 C 13,9 C 76 % 0 lf 1003,0 hPa 0,0 l/m 0 min 0 min 167 W/m 48,1 km/h (6 Bft) 95,74 %
14.09.2017 15:52 13,7 C 14,4 C 13,3 C 76 % 0 lf 1003,1 hPa 0,0 l/m 0 min 0 min 154 W/m 31,4 km/h (5 Bft) 95,74 %
14.09.2017 15:54 13,7 C 13,9 C 13,3 C 76 % 0 lf 1003,0 hPa 0,0 l/m 0 min 0 min 161 W/m 48,1 km/h (6 Bft) 87,23 %
14.09.2017 15:56 13,6 C 13,9 C 13,3 C 76 % 1 lf 1003,2 hPa 0,0 l/m 0 min 0 min 142 W/m 62,8 km/h (8 Bft) 95,74 %
14.09.2017 15:58 13,6 C 13,3 C 12,2 C 76 % 3 lf 1003,1 hPa 0,0 l/m 0 min 2 min 132 W/m 58,6 km/h (7 Bft) 95,74 %
14.09.2017 16:00 13,5 C 13,3 C 12,2 C 77 % 3 lf 1003,1 hPa 0,0 l/m 0 min 2 min 112 W/m 35,6 km/h (5 Bft) 95,65 %
14.09.2017 16:02 13,4 C 13,3 C 12,2 C 78 % 2 lf 1003,2 hPa 0,0 l/m 0 min 2 min 113 W/m 54,4 km/h (7 Bft) 95,74 %
14.09.2017 16:04 13,3 C 12,8 C 11,7 C 78 % 7 lf 1003,3 hPa 0,0 l/m 0 min 2 min 104 W/m 56,5 km/h (7 Bft) 95,74 %
14.09.2017 16:06 13,3 C 12,2 C 11,1 C 79 % 15 lf 1003,2 hPa 0,0 l/m 0 min 2 min 92 W/m 37,7 km/h (5 Bft) 93,62 %
14.09.2017 16:08 13,2 C 12,2 C 10,6 C 80 % 15 lf 1003,3 hPa 0,0 l/m 0 min 2 min 83 W/m 41,8 km/h (6 Bft) 95,74 %
14.09.2017 16:10 13,1 C 12,2 C 10,6 C 80 % 15 lf 1003,3 hPa 0,0 l/m 0 min 2 min 87 W/m 56,5 km/h (7 Bft) 93,62 %
14.09.2017 16:12 12,9 C 11,7 C 10,6 C 81 % 15 lf 1003,3 hPa 0,0 l/m 0 min 2 min 82 W/m 46,0 km/h (6 Bft) 95,65 %
14.09.2017 16:14 12,8 C 11,7 C 10,0 C 81 % 15 lf 1003,4 hPa 0,2 l/m 0 min 2 min 65 W/m 50,2 km/h (7 Bft) 93,62 %
14.09.2017 16:16 12,7 C 11,1 C 10,0 C 82 % 15 lf 1003,4 hPa 0,0 l/m 0 min 2 min 56 W/m 33,5 km/h (5 Bft) 93,62 %
14.09.2017 16:18 12,6 C 11,1 C 10,0 C 83 % 15 lf 1003,3 hPa 0,2 l/m 0 min 2 min 58 W/m 37,7 km/h (5 Bft) 93,62 %
14.09.2017 16:20 12,6 C 11,1 C 10,0 C 84 % 15 lf 1003,5 hPa 0,0 l/m 0 min 2 min 90 W/m 41,8 km/h (6 Bft) 97,87 %
14.09.2017 16:22 12,4 C 11,1 C 10,0 C 84 % 15 lf 1003,5 hPa 0,0 l/m 0 min 2 min 84 W/m 43,9 km/h (6 Bft) 97,87 %
14.09.2017 16:24 12,3 C 10,6 C 9,4 C 85 % 15 lf 1003,7 hPa 0,0 l/m 0 min 2 min 91 W/m 46,0 km/h (6 Bft) 97,83 %
14.09.2017 16:26 12,1 C 10,6 C 9,4 C 85 % 15 lf 1003,5 hPa 0,2 l/m 0 min 2 min 100 W/m 50,2 km/h (7 Bft) 97,87 %
14.09.2017 16:28 12,0 C 10,6 C 9,4 C 86 % 15 lf 1003,6 hPa 0,0 l/m 0 min 2 min 95 W/m 35,6 km/h (5 Bft) 100,00 %
14.09.2017 16:30 11,9 C 10,6 C 10,0 C 86 % 15 lf 1003,7 hPa 0,0 l/m 0 min 2 min 114 W/m 35,6 km/h (5 Bft) 100,00 %
14.09.2017 16:32 11,9 C 10,6 C 10,0 C 87 % 15 lf 1003,7 hPa 0,2 l/m 0 min 2 min 79 W/m 35,6 km/h (5 Bft) 97,87 %
14.09.2017 16:34 11,8 C 10,6 C 9,4 C 87 % 15 lf 1003,7 hPa 0,0 l/m 0 min 2 min 67 W/m 37,7 km/h (5 Bft) 97,83 %
14.09.2017 16:36 11,7 C 10,0 C 9,4 C 88 % 15 lf 1003,7 hPa 0,0 l/m 0 min 2 min 58 W/m 39,7 km/h (6 Bft) 100,00 %
14.09.2017 16:38 11,7 C 10,0 C 9,4 C 88 % 15 lf 1003,8 hPa 0,0 l/m 2 min 2 min 342 W/m 43,9 km/h (6 Bft) 100,00 %
14.09.2017 16:40 11,5 C 10,0 C 9,4 C 88 % 15 lf 1003,8 hPa 0,2 l/m 2 min 2 min 406 W/m 48,1 km/h (6 Bft) 100,00 %
14.09.2017 16:42 11,4 C 10,0 C 9,4 C 88 % 15 lf 1003,8 hPa 0,0 l/m 2 min 2 min 347 W/m 46,0 km/h (6 Bft) 97,87 %
14.09.2017 16:44 11,3 C 10,0 C 9,4 C 89 % 15 lf 1003,9 hPa 0,0 l/m 0 min 2 min 55 W/m 25,1 km/h (4 Bft) 100,00 %
14.09.2017 16:46 11,3 C 10,0 C 9,4 C 89 % 15 lf 1003,8 hPa 0,2 l/m 0 min 2 min 87 W/m 31,4 km/h (5 Bft) 97,83 %
14.09.2017 16:48 11,2 C 10,0 C 9,4 C 90 % 15 lf 1003,9 hPa 0,0 l/m 0 min 2 min 55 W/m 33,5 km/h (5 Bft) 97,87 %
14.09.2017 16:50 11,1 C 10,0 C 9,4 C 90 % 15 lf 1003,8 hPa 0,0 l/m 0 min 2 min 62 W/m 33,5 km/h (5 Bft) 97,87 %
14.09.2017 16:52 11,1 C 10,0 C 9,4 C 90 % 15 lf 1003,8 hPa 0,2 l/m 0 min 2 min 45 W/m 41,8 km/h (6 Bft) 95,74 %
14.09.2017 16:54 11,0 C 10,0 C 9,4 C 90 % 15 lf 1003,8 hPa 0,0 l/m 0 min 2 min 42 W/m 35,6 km/h (5 Bft) 95,74 %
14.09.2017 16:56 10,9 C 10,0 C 9,4 C 91 % 15 lf 1003,8 hPa 0,2 l/m 0 min 2 min 40 W/m 33,5 km/h (5 Bft) 93,62 %
14.09.2017 16:58 10,9 C 9,4 C 9,4 C 91 % 15 lf 1003,7 hPa 0,0 l/m 0 min 2 min 39 W/m 39,7 km/h (6 Bft) 95,65 %
14.09.2017 17:00 10,8 C 9,4 C 8,9 C 91 % 15 lf 1003,7 hPa 0,0 l/m 0 min 2 min 41 W/m 41,8 km/h (6 Bft) 95,74 %
14.09.2017 17:02 10,8 C 9,4 C 8,9 C 91 % 15 lf 1003,8 hPa 0,2 l/m 0 min 2 min 47 W/m 39,7 km/h (6 Bft) 95,74 %
14.09.2017 17:04 10,7 C 9,4 C 8,9 C 91 % 15 lf 1003,8 hPa 0,0 l/m 0 min 2 min 42 W/m 39,7 km/h (6 Bft) 93,62 %
14.09.2017 17:06 10,7 C 9,4 C 8,9 C 92 % 15 lf 1003,6 hPa 0,2 l/m 0 min 2 min 43 W/m 41,8 km/h (6 Bft) 95,74 %
14.09.2017 17:08 10,7 C 9,4 C 8,9 C 92 % 15 lf 1003,6 hPa 0,0 l/m 0 min 2 min 45 W/m 35,6 km/h (5 Bft) 95,74 %
14.09.2017 17:10 10,7 C 9,4 C 8,9 C 92 % 15 lf 1003,6 hPa 0,0 l/m 0 min 2 min 49 W/m 41,8 km/h (6 Bft) 95,65 %
14.09.2017 17:12 10,6 C 9,4 C 8,9 C 92 % 15 lf 1003,6 hPa 0,0 l/m 0 min 2 min 44 W/m 41,8 km/h (6 Bft) 95,74 %
14.09.2017 17:14 10,6 C 9,4 C 8,9 C 92 % 15 lf 1003,6 hPa 0,2 l/m 0 min 2 min 42 W/m 46,0 km/h (6 Bft) 95,74 %
14.09.2017 17:16 10,6 C 9,4 C 8,9 C 92 % 15 lf 1003,6 hPa 0,0 l/m 0 min 2 min 41 W/m 46,0 km/h (6 Bft) 95,74 %
14.09.2017 17:18 10,6 C 9,4 C 8,9 C 92 % 15 lf 1003,6 hPa 0,2 l/m 0 min 2 min 40 W/m 39,7 km/h (6 Bft) 95,74 %
14.09.2017 17:20 10,6 C 9,4 C 8,9 C 92 % 15 lf 1003,7 hPa 0,0 l/m 0 min 2 min 39 W/m 43,9 km/h (6 Bft) 95,74 %
14.09.2017 17:22 10,5 C 9,4 C 8,9 C 93 % 15 lf 1003,7 hPa 0,0 l/m 0 min 2 min 37 W/m 52,3 km/h (7 Bft) 91,30 %
14.09.2017 17:24 10,5 C 9,4 C 8,9 C 93 % 15 lf 1003,7 hPa 0,0 l/m 0 min 2 min 36 W/m 48,1 km/h (6 Bft) 95,74 %
14.09.2017 17:26 10,4 C 9,4 C 8,9 C 93 % 15 lf 1003,7 hPa 0,2 l/m 0 min 2 min 40 W/m 41,8 km/h (6 Bft) 97,87 %
14.09.2017 17:28 10,4 C 9,4 C 8,9 C 93 % 15 lf 1003,7 hPa 0,0 l/m 0 min 2 min 38 W/m 52,3 km/h (7 Bft) 97,87 %
14.09.2017 17:30 10,4 C 9,4 C 8,9 C 93 % 15 lf 1003,6 hPa 0,0 l/m 0 min 2 min 34 W/m 43,9 km/h (6 Bft) 95,74 %
14.09.2017 17:32 10,4 C 9,4 C 8,9 C 93 % 15 lf 1003,6 hPa 0,0 l/m 0 min 2 min 37 W/m 37,7 km/h (5 Bft) 97,87 %
14.09.2017 17:34 10,4 C 9,4 C 8,9 C 93 % 15 lf 1003,6 hPa 0,2 l/m 0 min 2 min 33 W/m 43,9 km/h (6 Bft) 97,83 %
14.09.2017 17:36 10,3 C 9,4 C 8,9 C 93 % 15 lf 1003,8 hPa 0,0 l/m 0 min 2 min 31 W/m 43,9 km/h (6 Bft) 97,87 %
14.09.2017 17:38 10,3 C 9,4 C 8,9 C 93 % 15 lf 1003,9 hPa 0,0 l/m 0 min 2 min 25 W/m 39,7 km/h (6 Bft) 95,74 %
14.09.2017 17:40 10,3 C 9,4 C 8,9 C 93 % 15 lf 1003,8 hPa 0,0 l/m 0 min 2 min 32 W/m 41,8 km/h (6 Bft) 95,74 %
14.09.2017 17:42 10,3 C 9,4 C 8,9 C 93 % 15 lf 1003,8 hPa 0,2 l/m 0 min 2 min 31 W/m 35,6 km/h (5 Bft) 100,00 %
14.09.2017 17:44 10,3 C 9,4 C 8,9 C 93 % 15 lf 1003,6 hPa 0,0 l/m 0 min 2 min 39 W/m 50,2 km/h (7 Bft) 100,00 %
14.09.2017 17:46 10,3 C 9,4 C 8,9 C 94 % 15 lf 1003,8 hPa 0,0 l/m 0 min 2 min 41 W/m 39,7 km/h (6 Bft) 100,00 %
14.09.2017 17:48 10,3 C 9,4 C 8,9 C 94 % 15 lf 1003,8 hPa 0,2 l/m 0 min 2 min 37 W/m 46,0 km/h (6 Bft) 95,74 %
14.09.2017 17:50 10,3 C 9,4 C 8,9 C 94 % 15 lf 1003,8 hPa 0,0 l/m 0 min 2 min 39 W/m 41,8 km/h (6 Bft) 100,00 %
14.09.2017 17:52 10,3 C 9,4 C 8,9 C 94 % 15 lf 1003,9 hPa 0,0 l/m 0 min 2 min 42 W/m 41,8 km/h (6 Bft) 100,00 %
14.09.2017 17:54 10,3 C 9,4 C 8,9 C 94 % 15 lf 1003,8 hPa 0,0 l/m 0 min 2 min 37 W/m 48,1 km/h (6 Bft) 95,74 %
14.09.2017 17:56 10,3 C 9,4 C 8,9 C 94 % 15 lf 1003,6 hPa 0,2 l/m 0 min 2 min 28 W/m 43,9 km/h (6 Bft) 93,48 %
14.09.2017 17:58 10,2 C 9,4 C 8,9 C 94 % 15 lf 1003,9 hPa 0,0 l/m 0 min 2 min 22 W/m 35,6 km/h (5 Bft) 97,87 %
14.09.2017 18:00 10,3 C 9,4 C 8,9 C 94 % 15 lf 1003,9 hPa 0,0 l/m 0 min 2 min 18 W/m 39,7 km/h (6 Bft) 100,00 %
14.09.2017 18:02 10,3 C 9,4 C 8,9 C 94 % 15 lf 1003,9 hPa 0,0 l/m 0 min 2 min 21 W/m 50,2 km/h (7 Bft) 97,87 %
14.09.2017 18:04 10,3 C 9,4 C 8,9 C 94 % 15 lf 1003,9 hPa 0,0 l/m 0 min 2 min 24 W/m 48,1 km/h (6 Bft) 100,00 %
14.09.2017 18:06 10,3 C 9,4 C 8,9 C 94 % 15 lf 1004,0 hPa 0,0 l/m 0 min 2 min 23 W/m 54,4 km/h (7 Bft) 100,00 %
14.09.2017 18:10 10,3 C 9,4 C 8,9 C 94 % 15 lf 1004,0 hPa 0,0 l/m 0 min 4 min 31 W/m 41,8 km/h (6 Bft) 98,96 %
14.09.2017 18:12 10,3 C 9,4 C 8,9 C 94 % 15 lf 1004,1 hPa 0,0 l/m 0 min 2 min 31 W/m 39,7 km/h (6 Bft) 100,00 %
14.09.2017 18:14 10,3 C 9,4 C 8,9 C 95 % 15 lf 1004,0 hPa 0,2 l/m 0 min 2 min 30 W/m 29,3 km/h (5 Bft) 100,00 %
14.09.2017 18:16 10,4 C 9,4 C 8,9 C 95 % 15 lf 1004,0 hPa 0,0 l/m 0 min 2 min 26 W/m 35,6 km/h (5 Bft) 100,00 %
14.09.2017 18:18 10,4 C 10,0 C 8,9 C 95 % 15 lf 1004,1 hPa 0,0 l/m 0 min 2 min 22 W/m 43,9 km/h (6 Bft) 100,00 %
14.09.2017 18:20 10,4 C 10,0 C 8,9 C 95 % 15 lf 1004,0 hPa 0,0 l/m 0 min 2 min 21 W/m 43,9 km/h (6 Bft) 95,74 %
14.09.2017 18:22 10,4 C 10,0 C 8,9 C 95 % 15 lf 1004,1 hPa 0,2 l/m 0 min 2 min 22 W/m 50,2 km/h (7 Bft) 97,87 %
14.09.2017 18:24 10,4 C 10,0 C 8,9 C 95 % 15 lf 1004,0 hPa 0,0 l/m 0 min 2 min 25 W/m 46,0 km/h (6 Bft) 97,87 %
14.09.2017 18:26 10,4 C 10,0 C 9,4 C 95 % 15 lf 1004,0 hPa 0,0 l/m 0 min 2 min 23 W/m 35,6 km/h (5 Bft) 95,74 %
14.09.2017 18:28 10,4 C 10,0 C 9,4 C 95 % 15 lf 1004,1 hPa 0,0 l/m 0 min 2 min 18 W/m 46,0 km/h (6 Bft) 95,74 %
14.09.2017 18:30 10,5 C 10,0 C 9,4 C 95 % 15 lf 1004,1 hPa 0,2 l/m 0 min 2 min 21 W/m 54,4 km/h (7 Bft) 95,65 %
14.09.2017 18:32 10,5 C 10,0 C 9,4 C 95 % 15 lf 1004,2 hPa 0,0 l/m 0 min 2 min 24 W/m 48,1 km/h (6 Bft) 97,87 %
14.09.2017 18:34 10,6 C 10,0 C 9,4 C 95 % 15 lf 1004,2 hPa 0,0 l/m 0 min 2 min 23 W/m 41,8 km/h (6 Bft) 95,74 %
14.09.2017 18:36 10,6 C 10,0 C 9,4 C 95 % 15 lf 1004,3 hPa 0,0 l/m 0 min 2 min 19 W/m 39,7 km/h (6 Bft) 95,74 %
14.09.2017 18:38 10,6 C 10,0 C 9,4 C 95 % 15 lf 1004,3 hPa 0,0 l/m 0 min 2 min 19 W/m 35,6 km/h (5 Bft) 95,74 %
14.09.2017 18:40 10,6 C 10,0 C 9,4 C 95 % 15 lf 1004,4 hPa 0,0 l/m 0 min 2 min 18 W/m 33,5 km/h (5 Bft) 95,74 %
14.09.2017 18:42 10,7 C 10,0 C 9,4 C 95 % 15 lf 1004,2 hPa 0,2 l/m 0 min 2 min 19 W/m 46,0 km/h (6 Bft) 97,83 %
14.09.2017 18:44 10,7 C 10,0 C 9,4 C 95 % 15 lf 1004,6 hPa 0,0 l/m 0 min 2 min 17 W/m 35,6 km/h (5 Bft) 97,87 %
14.09.2017 18:46 10,7 C 10,0 C 9,4 C 95 % 15 lf 1004,6 hPa 0,0 l/m 0 min 2 min 16 W/m 25,1 km/h (4 Bft) 93,62 %
14.09.2017 18:48 10,7 C 10,0 C 9,4 C 95 % 15 lf 1004,5 hPa 0,0 l/m 0 min 2 min 16 W/m 31,4 km/h (5 Bft) 93,62 %
14.09.2017 18:50 10,7 C 10,0 C 9,4 C 95 % 15 lf 1004,6 hPa 0,2 l/m 0 min 2 min 15 W/m 41,8 km/h (6 Bft) 95,74 %
14.09.2017 18:52 10,7 C 10,0 C 9,4 C 95 % 15 lf 1004,7 hPa 0,0 l/m 0 min 2 min 13 W/m 50,2 km/h (7 Bft) 95,65 %
14.09.2017 18:54 10,7 C 10,0 C 9,4 C 95 % 15 lf 1004,7 hPa 0,0 l/m 0 min 2 min 14 W/m 46,0 km/h (6 Bft) 95,74 %
14.09.2017 18:56 10,8 C 10,0 C 9,4 C 96 % 15 lf 1004,8 hPa 0,0 l/m 0 min 2 min 14 W/m 37,7 km/h (5 Bft) 95,74 %
14.09.2017 18:58 10,8 C 10,0 C 9,4 C 96 % 15 lf 1004,8 hPa 0,0 l/m 0 min 2 min 12 W/m 29,3 km/h (5 Bft) 97,87 %
14.09.2017 19:00 10,8 C 10,0 C 9,4 C 96 % 15 lf 1004,8 hPa 0,2 l/m 0 min 2 min 9 W/m 27,2 km/h (4 Bft) 95,74 %
14.09.2017 19:02 10,8 C 10,0 C 9,4 C 96 % 15 lf 1004,9 hPa 0,0 l/m 0 min 2 min 11 W/m 46,0 km/h (6 Bft) 91,49 %
14.09.2017 19:04 10,8 C 10,0 C 9,4 C 96 % 15 lf 1005,0 hPa 0,0 l/m 0 min 2 min 11 W/m 29,3 km/h (5 Bft) 93,48 %
14.09.2017 19:06 10,8 C 10,0 C 9,4 C 96 % 15 lf 1005,0 hPa 0,0 l/m 0 min 2 min 11 W/m 37,7 km/h (5 Bft) 91,49 %
14.09.2017 19:08 10,8 C 10,0 C 9,4 C 96 % 15 lf 1005,0 hPa 0,2 l/m 0 min 2 min 11 W/m 33,5 km/h (5 Bft) 93,62 %
14.09.2017 19:10 10,8 C 10,0 C 9,4 C 96 % 15 lf 1005,0 hPa 0,0 l/m 0 min 2 min 11 W/m 27,2 km/h (4 Bft) 91,49 %
14.09.2017 19:12 10,8 C 10,0 C 9,4 C 96 % 15 lf 1005,1 hPa 0,0 l/m 0 min 2 min 11 W/m 43,9 km/h (6 Bft) 95,74 %
14.09.2017 19:14 10,9 C 10,6 C 9,4 C 96 % 15 lf 1005,2 hPa 0,0 l/m 0 min 2 min 11 W/m 29,3 km/h (5 Bft) 97,87 %
14.09.2017 19:16 10,9 C 10,6 C 9,4 C 96 % 15 lf 1005,1 hPa 0,0 l/m 0 min 2 min 10 W/m 35,6 km/h (5 Bft) 95,65 %
14.09.2017 19:18 10,9 C 10,6 C 9,4 C 96 % 15 lf 1005,4 hPa 0,2 l/m 0 min 2 min 9 W/m 35,6 km/h (5 Bft) 95,74 %
14.09.2017 19:20 10,9 C 10,6 C 9,4 C 96 % 15 lf 1005,2 hPa 0,0 l/m 0 min 2 min 8 W/m 33,5 km/h (5 Bft) 97,87 %
14.09.2017 19:22 10,9 C 10,6 C 9,4 C 96 % 15 lf 1005,4 hPa 0,0 l/m 0 min 2 min 7 W/m 29,3 km/h (5 Bft) 100,00 %
14.09.2017 19:24 10,9 C 10,6 C 9,4 C 96 % 15 lf 1005,5 hPa 0,0 l/m 0 min 2 min 6 W/m 35,6 km/h (5 Bft) 97,87 %
14.09.2017 19:26 10,9 C 10,6 C 9,4 C 96 % 15 lf 1005,5 hPa 0,0 l/m 0 min 2 min 5 W/m 25,1 km/h (4 Bft) 97,87 %
14.09.2017 19:28 10,9 C 10,6 C 9,4 C 96 % 15 lf 1005,5 hPa 0,2 l/m 0 min 2 min 5 W/m 37,7 km/h (5 Bft) 95,65 %
14.09.2017 19:30 10,9 C 10,6 C 9,4 C 96 % 15 lf 1005,6 hPa 0,0 l/m 0 min 2 min 5 W/m 33,5 km/h (5 Bft) 97,87 %
14.09.2017 19:32 10,9 C 10,6 C 9,4 C 96 % 15 lf 1005,7 hPa 0,0 l/m 0 min 2 min 5 W/m 33,5 km/h (5 Bft) 97,87 %
14.09.2017 19:34 11,0 C 10,6 C 9,4 C 96 % 15 lf 1005,7 hPa 0,0 l/m 0 min 2 min 5 W/m 31,4 km/h (5 Bft) 93,62 %
14.09.2017 19:36 11,0 C 10,6 C 9,4 C 96 % 15 lf 1005,8 hPa 0,0 l/m 0 min 2 min 5 W/m 33,5 km/h (5 Bft) 97,87 %
14.09.2017 19:38 11,0 C 10,6 C 9,4 C 96 % 15 lf 1005,8 hPa 0,0 l/m 0 min 2 min 0 W/m 25,1 km/h (4 Bft) 97,87 %
14.09.2017 19:40 11,0 C 10,6 C 9,4 C 96 % 15 lf 1005,9 hPa 0,2 l/m 0 min 2 min 0 W/m 43,9 km/h (6 Bft) 97,83 %
14.09.2017 19:42 11,0 C 10,6 C 10,0 C 96 % 15 lf 1006,0 hPa 0,0 l/m 0 min 2 min 0 W/m 33,5 km/h (5 Bft) 95,74 %
14.09.2017 19:44 11,0 C 10,6 C 10,0 C 96 % 15 lf 1006,0 hPa 0,0 l/m 0 min 2 min 0 W/m 27,2 km/h (4 Bft) 95,74 %
14.09.2017 19:46 11,0 C 10,6 C 10,0 C 96 % 15 lf 1006,1 hPa 0,0 l/m 0 min 2 min 0 W/m 27,2 km/h (4 Bft) 95,74 %
14.09.2017 19:48 11,1 C 10,6 C 10,0 C 96 % 15 lf 1006,1 hPa 0,0 l/m 0 min 2 min 0 W/m 27,2 km/h (4 Bft) 95,74 %
14.09.2017 19:50 11,1 C 10,6 C 10,0 C 97 % 15 lf 1006,3 hPa 0,0 l/m 0 min 2 min 0 W/m 27,2 km/h (4 Bft) 91,49 %
14.09.2017 19:52 11,1 C 10,6 C 10,0 C 97 % 15 lf 1006,3 hPa 0,2 l/m 0 min 2 min 0 W/m 23,0 km/h (4 Bft) 95,65 %
14.09.2017 19:54 11,1 C 10,6 C 10,0 C 97 % 15 lf 1006,3 hPa 0,0 l/m 0 min 2 min 0 W/m 27,2 km/h (4 Bft) 93,62 %
14.09.2017 19:56 11,1 C 10,6 C 10,0 C 97 % 15 lf 1006,4 hPa 0,0 l/m 0 min 2 min 0 W/m 37,7 km/h (5 Bft) 95,74 %
14.09.2017 19:58 11,1 C 10,6 C 10,0 C 97 % 15 lf 1006,5 hPa 0,0 l/m 0 min 2 min 0 W/m 20,9 km/h (4 Bft) 93,62 %
14.09.2017 20:00 11,1 C 10,6 C 10,0 C 97 % 15 lf 1006,5 hPa 0,0 l/m 0 min 2 min 0 W/m 25,1 km/h (4 Bft) 91,30 %
14.09.2017 20:02 11,1 C 10,6 C 10,0 C 97 % 15 lf 1006,6 hPa 0,0 l/m 0 min 2 min 0 W/m 25,1 km/h (4 Bft) 93,62 %
14.09.2017 20:04 11,1 C 10,6 C 10,0 C 97 % 15 lf 1006,6 hPa 0,2 l/m 0 min 2 min 0 W/m 20,9 km/h (4 Bft) 95,65 %
14.09.2017 20:06 11,1 C 10,6 C 10,0 C 97 % 15 lf 1006,7 hPa 0,0 l/m 0 min 2 min 0 W/m 25,1 km/h (4 Bft) 95,74 %
14.09.2017 20:08 11,2 C 10,6 C 10,0 C 97 % 15 lf 1006,8 hPa 0,2 l/m 0 min 2 min 0 W/m 37,7 km/h (5 Bft) 91,49 %
14.09.2017 20:10 11,2 C 10,6 C 10,0 C 97 % 15 lf 1006,8 hPa 0,0 l/m 0 min 2 min 0 W/m 25,1 km/h (4 Bft) 97,87 %
14.09.2017 20:12 11,2 C 10,6 C 10,0 C 97 % 15 lf 1006,8 hPa 0,2 l/m 0 min 2 min 0 W/m 39,7 km/h (6 Bft) 97,87 %
14.09.2017 20:14 11,2 C 10,6 C 10,0 C 97 % 15 lf 1006,9 hPa 0,0 l/m 0 min 2 min 0 W/m 29,3 km/h (5 Bft) 97,83 %
14.09.2017 20:16 11,2 C 10,6 C 10,0 C 97 % 15 lf 1007,1 hPa 0,2 l/m 0 min 2 min 0 W/m 31,4 km/h (5 Bft) 97,87 %
14.09.2017 20:18 11,2 C 10,6 C 10,0 C 97 % 15 lf 1007,1 hPa 0,0 l/m 0 min 2 min 0 W/m 33,5 km/h (5 Bft) 95,74 %
14.09.2017 20:20 11,2 C 10,6 C 10,0 C 97 % 15 lf 1007,1 hPa 0,0 l/m 0 min 2 min 0 W/m 20,9 km/h (4 Bft) 97,87 %
14.09.2017 20:22 11,2 C 10,6 C 10,0 C 97 % 15 lf 1007,2 hPa 0,0 l/m 0 min 2 min 0 W/m 33,5 km/h (5 Bft) 97,87 %
14.09.2017 20:24 11,2 C 10,6 C 10,0 C 97 % 15 lf 1007,2 hPa 0,2 l/m 0 min 2 min 0 W/m 27,2 km/h (4 Bft) 89,36 %
14.09.2017 20:26 11,2 C 10,6 C 10,0 C 97 % 15 lf 1007,2 hPa 0,0 l/m 0 min 2 min 0 W/m 41,8 km/h (6 Bft) 97,83 %
14.09.2017 20:28 11,2 C 10,6 C 10,0 C 97 % 15 lf 1007,4 hPa 0,0 l/m 0 min 2 min 0 W/m 35,6 km/h (5 Bft) 95,74 %
14.09.2017 20:30 11,2 C 10,6 C 10,0 C 97 % 15 lf 1007,3 hPa 0,2 l/m 0 min 2 min 0 W/m 35,6 km/h (5 Bft) 97,87 %
14.09.2017 20:32 11,2 C 10,6 C 10,0 C 97 % 15 lf 1007,4 hPa 0,0 l/m 0 min 2 min 0 W/m 25,1 km/h (4 Bft) 97,87 %
14.09.2017 20:34 11,2 C 10,6 C 10,0 C 97 % 15 lf 1007,5 hPa 0,0 l/m 0 min 2 min 0 W/m 29,3 km/h (5 Bft) 97,87 %
14.09.2017 20:36 11,3 C 10,6 C 10,0 C 97 % 15 lf 1007,5 hPa 0,0 l/m 0 min 2 min 0 W/m 29,3 km/h (5 Bft) 100,00 %
14.09.2017 20:38 11,3 C 10,6 C 10,0 C 97 % 15 lf 1007,7 hPa 0,0 l/m 0 min 2 min 0 W/m 27,2 km/h (4 Bft) 100,00 %
14.09.2017 20:40 11,2 C 10,6 C 10,0 C 97 % 15 lf 1007,8 hPa 0,0 l/m 0 min 2 min 0 W/m 31,4 km/h (5 Bft) 93,62 %
14.09.2017 20:42 11,3 C 10,6 C 10,0 C 97 % 15 lf 1007,9 hPa 0,2 l/m 0 min 2 min 0 W/m 20,9 km/h (4 Bft) 95,74 %
14.09.2017 20:44 11,3 C 10,6 C 10,0 C 97 % 15 lf 1007,9 hPa 0,0 l/m 0 min 2 min 0 W/m 18,8 km/h (3 Bft) 97,87 %
14.09.2017 20:46 11,3 C 10,6 C 10,0 C 97 % 15 lf 1007,9 hPa 0,0 l/m 0 min 2 min 0 W/m 25,1 km/h (4 Bft) 95,74 %
14.09.2017 20:48 11,3 C 10,6 C 10,0 C 97 % 15 lf 1007,9 hPa 0,0 l/m 0 min 2 min 0 W/m 29,3 km/h (5 Bft) 93,62 %
14.09.2017 20:50 11,3 C 10,6 C 10,0 C 97 % 15 lf 1007,9 hPa 0,0 l/m 0 min 2 min 0 W/m 29,3 km/h (5 Bft) 95,65 %
14.09.2017 20:52 11,3 C 10,6 C 10,0 C 97 % 15 lf 1008,0 hPa 0,0 l/m 0 min 2 min 0 W/m 25,1 km/h (4 Bft) 97,87 %
14.09.2017 20:54 11,3 C 10,6 C 10,0 C 97 % 15 lf 1008,1 hPa 0,0 l/m 0 min 2 min 0 W/m 23,0 km/h (4 Bft) 97,87 %
14.09.2017 20:56 11,3 C 10,6 C 10,0 C 97 % 15 lf 1008,2 hPa 0,0 l/m 0 min 2 min 0 W/m 27,2 km/h (4 Bft) 97,87 %
14.09.2017 20:58 11,3 C 10,6 C 10,0 C 97 % 15 lf 1008,1 hPa 0,0 l/m 0 min 2 min 0 W/m 33,5 km/h (5 Bft) 95,74 %
14.09.2017 21:00 11,3 C 10,6 C 10,0 C 97 % 15 lf 1008,3 hPa 0,0 l/m 0 min 2 min 0 W/m 31,4 km/h (5 Bft) 97,87 %
14.09.2017 21:02 11,3 C 10,6 C 10,0 C 97 % 15 lf 1008,3 hPa 0,0 l/m 0 min 2 min 0 W/m 35,6 km/h (5 Bft) 95,65 %
14.09.2017 21:04 11,3 C 10,6 C 10,0 C 97 % 15 lf 1008,2 hPa 0,0 l/m 0 min 2 min 0 W/m 27,2 km/h (4 Bft) 97,87 %
14.09.2017 21:06 11,3 C 10,6 C 10,0 C 97 % 15 lf 1008,4 hPa 0,0 l/m 0 min 2 min 0 W/m 33,5 km/h (5 Bft) 93,62 %
14.09.2017 21:08 11,3 C 10,6 C 10,0 C 97 % 15 lf 1008,4 hPa 0,2 l/m 0 min 2 min 0 W/m 23,0 km/h (4 Bft) 93,62 %
14.09.2017 21:10 11,3 C 10,6 C 10,0 C 97 % 15 lf 1008,4 hPa 0,0 l/m 0 min 2 min 0 W/m 33,5 km/h (5 Bft) 95,74 %
14.09.2017 21:12 11,3 C 10,6 C 10,0 C 97 % 15 lf 1008,4 hPa 0,0 l/m 0 min 2 min 0 W/m 25,1 km/h (4 Bft) 97,87 %
14.09.2017 21:14 11,3 C 10,6 C 10,0 C 97 % 15 lf 1008,4 hPa 0,0 l/m 0 min 2 min 0 W/m 25,1 km/h (4 Bft) 97,83 %
14.09.2017 21:16 11,3 C 10,6 C 10,0 C 97 % 15 lf 1008,5 hPa 0,0 l/m 0 min 2 min 0 W/m 35,6 km/h (5 Bft) 95,74 %
14.09.2017 21:18 11,3 C 10,6 C 10,0 C 97 % 15 lf 1008,6 hPa 0,0 l/m 0 min 2 min 0 W/m 23,0 km/h (4 Bft) 97,87 %
14.09.2017 21:20 11,2 C 10,6 C 10,0 C 97 % 15 lf 1008,7 hPa 0,0 l/m 0 min 2 min 0 W/m 18,8 km/h (3 Bft) 95,74 %
14.09.2017 21:22 11,2 C 10,6 C 10,0 C 97 % 15 lf 1008,7 hPa 0,0 l/m 0 min 2 min 0 W/m 29,3 km/h (5 Bft) 97,87 %
14.09.2017 21:24 11,2 C 10,6 C 10,0 C 97 % 15 lf 1008,8 hPa 0,0 l/m 0 min 2 min 0 W/m 31,4 km/h (5 Bft) 97,87 %
14.09.2017 21:26 11,2 C 10,6 C 10,0 C 97 % 15 lf 1008,8 hPa 0,0 l/m 0 min 2 min 0 W/m 20,9 km/h (4 Bft) 97,83 %
14.09.2017 21:28 11,3 C 10,6 C 10,0 C 97 % 15 lf 1008,8 hPa 0,0 l/m 0 min 2 min 0 W/m 20,9 km/h (4 Bft) 91,49 %
14.09.2017 21:30 11,3 C 10,6 C 10,0 C 97 % 15 lf 1008,8 hPa 0,0 l/m 0 min 0 min 0 W/m 18,8 km/h (3 Bft) 97,87 %
14.09.2017 21:32 11,2 C 10,6 C 10,0 C 97 % 15 lf 1008,8 hPa 0,0 l/m 0 min 2 min 0 W/m 29,3 km/h (5 Bft) 97,87 %
14.09.2017 21:34 11,2 C 10,6 C 10,0 C 97 % 15 lf 1008,9 hPa 0,0 l/m 0 min 0 min 0 W/m 23,0 km/h (4 Bft) 97,87 %
14.09.2017 21:36 11,2 C 10,6 C 10,0 C 97 % 15 lf 1008,8 hPa 0,0 l/m 0 min 0 min 0 W/m 31,4 km/h (5 Bft) 97,83 %
14.09.2017 21:38 11,2 C 10,6 C 10,0 C 97 % 15 lf 1008,9 hPa 0,0 l/m 0 min 0 min 0 W/m 23,0 km/h (4 Bft) 95,74 %
14.09.2017 21:40 11,2 C 10,6 C 10,0 C 97 % 15 lf 1008,9 hPa 0,0 l/m 0 min 0 min 0 W/m 16,7 km/h (3 Bft) 95,74 %
14.09.2017 21:42 11,2 C 10,6 C 10,0 C 97 % 15 lf 1008,9 hPa 0,0 l/m 0 min 0 min 0 W/m 25,1 km/h (4 Bft) 97,87 %
14.09.2017 21:44 11,3 C 10,6 C 10,0 C 97 % 15 lf 1008,9 hPa 0,0 l/m 0 min 0 min 0 W/m 18,8 km/h (3 Bft) 97,87 %
14.09.2017 21:46 11,3 C 10,6 C 10,0 C 97 % 15 lf 1008,9 hPa 0,0 l/m 0 min 0 min 0 W/m 18,8 km/h (3 Bft) 97,87 %
14.09.2017 21:48 11,3 C 10,6 C 10,0 C 97 % 15 lf 1009,0 hPa 0,0 l/m 0 min 0 min 0 W/m 18,8 km/h (3 Bft) 95,65 %
14.09.2017 21:50 11,3 C 10,6 C 10,0 C 97 % 15 lf 1008,9 hPa 0,0 l/m 0 min 0 min 0 W/m 25,1 km/h (4 Bft) 95,74 %
14.09.2017 21:52 11,3 C 10,6 C 10,0 C 97 % 15 lf 1009,0 hPa 0,0 l/m 0 min 0 min 0 W/m 27,2 km/h (4 Bft) 97,87 %
14.09.2017 21:54 11,3 C 10,6 C 10,0 C 97 % 15 lf 1009,1 hPa 0,0 l/m 0 min 0 min 0 W/m 18,8 km/h (3 Bft) 95,74 %
14.09.2017 21:56 11,3 C 10,6 C 10,0 C 97 % 15 lf 1009,0 hPa 0,0 l/m 0 min 0 min 0 W/m 31,4 km/h (5 Bft) 97,87 %
14.09.2017 21:58 11,3 C 10,6 C 10,0 C 97 % 15 lf 1009,1 hPa 0,0 l/m 0 min 0 min 0 W/m 25,1 km/h (4 Bft) 95,74 %
14.09.2017 22:00 11,3 C 10,6 C 10,0 C 97 % 15 lf 1009,0 hPa 0,0 l/m 0 min 0 min 0 W/m 20,9 km/h (4 Bft) 97,83 %
14.09.2017 22:02 11,3 C 10,6 C 10,0 C 97 % 15 lf 1009,0 hPa 0,0 l/m 0 min 0 min 0 W/m 23,0 km/h (4 Bft) 97,87 %
14.09.2017 22:04 11,3 C 10,6 C 10,0 C 97 % 15 lf 1009,1 hPa 0,0 l/m 0 min 2 min 0 W/m 33,5 km/h (5 Bft) 100,00 %
14.09.2017 22:06 11,3 C 11,1 C 10,0 C 97 % 15 lf 1009,1 hPa 0,0 l/m 0 min 0 min 0 W/m 23,0 km/h (4 Bft) 97,87 %
14.09.2017 22:08 11,3 C 10,6 C 10,0 C 97 % 15 lf 1009,1 hPa 0,0 l/m 0 min 0 min 0 W/m 18,8 km/h (3 Bft) 97,87 %
14.09.2017 22:10 11,3 C 10,6 C 10,0 C 97 % 15 lf 1009,1 hPa 0,0 l/m 0 min 0 min 0 W/m 25,1 km/h (4 Bft) 97,87 %
14.09.2017 22:12 11,3 C 10,6 C 10,0 C 97 % 15 lf 1009,1 hPa 0,0 l/m 0 min 0 min 0 W/m 31,4 km/h (5 Bft) 100,00 %
14.09.2017 22:14 11,3 C 10,6 C 10,0 C 97 % 15 lf 1009,1 hPa 0,0 l/m 0 min 0 min 0 W/m 27,2 km/h (4 Bft) 97,87 %
14.09.2017 22:16 11,3 C 10,6 C 10,0 C 97 % 15 lf 1009,1 hPa 0,0 l/m 0 min 0 min 0 W/m 25,1 km/h (4 Bft) 100,00 %
14.09.2017 22:18 11,3 C 10,6 C 10,0 C 97 % 15 lf 1009,1 hPa 0,0 l/m 0 min 0 min 0 W/m 29,3 km/h (5 Bft) 97,87 %
14.09.2017 22:20 11,3 C 10,6 C 10,0 C 97 % 15 lf 1009,2 hPa 0,0 l/m 0 min 0 min 0 W/m 18,8 km/h (3 Bft) 100,00 %
14.09.2017 22:22 11,3 C 10,6 C 10,0 C 97 % 15 lf 1009,3 hPa 0,0 l/m 0 min 0 min 0 W/m 25,1 km/h (4 Bft) 97,87 %
14.09.2017 22:24 11,2 C 10,6 C 10,0 C 97 % 15 lf 1009,3 hPa 0,0 l/m 0 min 0 min 0 W/m 20,9 km/h (4 Bft) 100,00 %
14.09.2017 22:26 11,2 C 10,6 C 10,0 C 97 % 15 lf 1009,4 hPa 0,0 l/m 0 min 0 min 0 W/m 20,9 km/h (4 Bft) 93,62 %
14.09.2017 22:28 11,2 C 10,6 C 10,0 C 97 % 15 lf 1009,5 hPa 0,0 l/m 0 min 0 min 0 W/m 20,9 km/h (4 Bft) 100,00 %
14.09.2017 22:30 11,2 C 10,6 C 9,4 C 97 % 15 lf 1009,5 hPa 0,0 l/m 0 min 0 min 0 W/m 18,8 km/h (3 Bft) 97,87 %
14.09.2017 22:32 11,2 C 10,6 C 10,0 C 97 % 15 lf 1009,5 hPa 0,0 l/m 0 min 0 min 0 W/m 27,2 km/h (4 Bft) 95,74 %
14.09.2017 22:34 11,2 C 10,6 C 10,0 C 97 % 15 lf 1009,6 hPa 0,0 l/m 0 min 0 min 0 W/m 31,4 km/h (5 Bft) 97,87 %
14.09.2017 22:36 11,1 C 10,6 C 9,4 C 97 % 15 lf 1009,7 hPa 0,0 l/m 0 min 0 min 0 W/m 16,7 km/h (3 Bft) 95,65 %
14.09.2017 22:38 11,1 C 10,6 C 9,4 C 97 % 15 lf 1009,7 hPa 0,0 l/m 0 min 0 min 0 W/m 20,9 km/h (4 Bft) 95,74 %
14.09.2017 22:40 11,1 C 10,6 C 9,4 C 97 % 15 lf 1009,7 hPa 0,0 l/m 0 min 0 min 0 W/m 25,1 km/h (4 Bft) 95,74 %
14.09.2017 22:42 11,1 C 10,6 C 10,0 C 97 % 15 lf 1009,8 hPa 0,0 l/m 0 min 0 min 0 W/m 16,7 km/h (3 Bft) 95,65 %
14.09.2017 22:44 11,1 C 10,6 C 10,0 C 97 % 15 lf 1009,8 hPa 0,0 l/m 0 min 0 min 0 W/m 23,0 km/h (4 Bft) 89,36 %
14.09.2017 22:46 11,1 C 10,6 C 10,0 C 97 % 15 lf 1009,8 hPa 0,0 l/m 0 min 0 min 0 W/m 25,1 km/h (4 Bft) 95,65 %
14.09.2017 22:48 11,1 C 10,6 C 10,0 C 97 % 15 lf 1009,8 hPa 0,0 l/m 0 min 2 min 0 W/m 20,9 km/h (4 Bft) 95,74 %
14.09.2017 22:50 11,1 C 10,6 C 10,0 C 97 % 15 lf 1009,8 hPa 0,0 l/m 0 min 2 min 0 W/m 27,2 km/h (4 Bft) 93,62 %
14.09.2017 22:52 11,1 C 10,6 C 10,0 C 97 % 15 lf 1009,8 hPa 0,0 l/m 0 min 0 min 0 W/m 23,0 km/h (4 Bft) 93,62 %
14.09.2017 22:54 11,1 C 10,6 C 10,0 C 97 % 15 lf 1009,9 hPa 0,0 l/m 0 min 0 min 0 W/m 18,8 km/h (3 Bft) 93,62 %
14.09.2017 22:56 11,1 C 10,6 C 10,0 C 97 % 15 lf 1010,0 hPa 0,0 l/m 0 min 0 min 0 W/m 27,2 km/h (4 Bft) 95,74 %
14.09.2017 22:58 11,1 C 10,6 C 9,4 C 97 % 15 lf 1010,1 hPa 0,0 l/m 0 min 0 min 0 W/m 23,0 km/h (4 Bft) 93,48 %
14.09.2017 23:00 11,1 C 10,6 C 9,4 C 97 % 15 lf 1010,1 hPa 0,0 l/m 0 min 0 min 0 W/m 18,8 km/h (3 Bft) 91,49 %
14.09.2017 23:02 11,1 C 10,6 C 9,4 C 97 % 15 lf 1010,1 hPa 0,0 l/m 0 min 0 min 0 W/m 25,1 km/h (4 Bft) 91,49 %
14.09.2017 23:04 11,0 C 10,6 C 10,0 C 97 % 15 lf 1010,2 hPa 0,0 l/m 0 min 0 min 0 W/m 20,9 km/h (4 Bft) 93,62 %
14.09.2017 23:06 11,1 C 10,6 C 10,0 C 97 % 15 lf 1010,2 hPa 0,0 l/m 0 min 0 min 0 W/m 23,0 km/h (4 Bft) 91,49 %
14.09.2017 23:08 11,0 C 10,6 C 10,0 C 97 % 15 lf 1010,2 hPa 0,0 l/m 0 min 0 min 0 W/m 20,9 km/h (4 Bft) 95,74 %
14.09.2017 23:10 11,1 C 10,6 C 10,0 C 97 % 15 lf 1010,2 hPa 0,0 l/m 0 min 0 min 0 W/m 23,0 km/h (4 Bft) 95,65 %
14.09.2017 23:12 11,1 C 10,6 C 10,0 C 97 % 15 lf 1010,2 hPa 0,0 l/m 0 min 0 min 0 W/m 16,7 km/h (3 Bft) 93,62 %
14.09.2017 23:14 11,1 C 10,6 C 10,0 C 97 % 15 lf 1010,2 hPa 0,0 l/m 0 min 0 min 0 W/m 18,8 km/h (3 Bft) 93,62 %
14.09.2017 23:16 11,1 C 10,6 C 10,0 C 97 % 15 lf 1010,3 hPa 0,0 l/m 0 min 0 min 0 W/m 20,9 km/h (4 Bft) 93,62 %
14.09.2017 23:18 11,1 C 10,6 C 10,0 C 97 % 15 lf 1010,3 hPa 0,0 l/m 0 min 0 min 0 W/m 14,6 km/h (3 Bft) 93,62 %
14.09.2017 23:20 11,1 C 10,6 C 10,0 C 97 % 15 lf 1010,3 hPa 0,0 l/m 0 min 0 min 0 W/m 20,9 km/h (4 Bft) 95,74 %
14.09.2017 23:22 11,1 C 10,6 C 10,0 C 97 % 15 lf 1010,3 hPa 0,0 l/m 0 min 0 min 0 W/m 23,0 km/h (4 Bft) 97,83 %
14.09.2017 23:24 11,1 C 10,6 C 10,0 C 97 % 15 lf 1010,3 hPa 0,0 l/m 0 min 0 min 0 W/m 27,2 km/h (4 Bft) 95,74 %
14.09.2017 23:26 11,1 C 10,6 C 10,0 C 97 % 15 lf 1010,3 hPa 0,0 l/m 0 min 0 min 0 W/m 20,9 km/h (4 Bft) 97,87 %
14.09.2017 23:28 11,1 C 10,6 C 10,0 C 97 % 15 lf 1010,4 hPa 0,0 l/m 0 min 0 min 0 W/m 23,0 km/h (4 Bft) 93,62 %
14.09.2017 23:30 11,1 C 10,6 C 10,0 C 97 % 15 lf 1010,4 hPa 0,0 l/m 0 min 0 min 0 W/m 16,7 km/h (3 Bft) 95,74 %
14.09.2017 23:32 11,1 C 10,6 C 10,0 C 97 % 15 lf 1010,4 hPa 0,0 l/m 0 min 0 min 0 W/m 25,1 km/h (4 Bft) 97,87 %
14.09.2017 23:34 11,1 C 10,6 C 10,0 C 97 % 15 lf 1010,4 hPa 0,0 l/m 0 min 0 min 0 W/m 25,1 km/h (4 Bft) 95,65 %
14.09.2017 23:36 11,1 C 10,6 C 10,0 C 97 % 15 lf 1010,4 hPa 0,0 l/m 0 min 0 min 0 W/m 20,9 km/h (4 Bft) 95,74 %
14.09.2017 23:38 11,1 C 10,6 C 10,0 C 97 % 15 lf 1010,5 hPa 0,0 l/m 0 min 0 min 0 W/m 20,9 km/h (4 Bft) 95,74 %
14.09.2017 23:40 11,1 C 10,6 C 9,4 C 97 % 15 lf 1010,5 hPa 0,0 l/m 0 min 2 min 0 W/m 18,8 km/h (3 Bft) 95,74 %
14.09.2017 23:42 11,1 C 10,6 C 9,4 C 97 % 15 lf 1010,5 hPa 0,0 l/m 0 min 2 min 0 W/m 23,0 km/h (4 Bft) 97,87 %
14.09.2017 23:44 11,1 C 10,6 C 9,4 C 97 % 15 lf 1010,5 hPa 0,0 l/m 0 min 0 min 0 W/m 27,2 km/h (4 Bft) 97,87 %
14.09.2017 23:46 11,1 C 10,6 C 9,4 C 97 % 15 lf 1010,5 hPa 0,0 l/m 0 min 0 min 0 W/m 18,8 km/h (3 Bft) 97,83 %
14.09.2017 23:48 11,1 C 10,6 C 10,0 C 97 % 15 lf 1010,6 hPa 0,0 l/m 0 min 0 min 0 W/m 25,1 km/h (4 Bft) 97,87 %
14.09.2017 23:50 11,1 C 10,6 C 10,0 C 97 % 15 lf 1010,6 hPa 0,0 l/m 0 min 0 min 0 W/m 23,0 km/h (4 Bft) 97,87 %
14.09.2017 23:52 11,1 C 10,6 C 10,0 C 97 % 15 lf 1010,6 hPa 0,0 l/m 0 min 0 min 0 W/m 23,0 km/h (4 Bft) 95,74 %
14.09.2017 23:54 11,1 C 10,6 C 10,0 C 97 % 15 lf 1010,6 hPa 0,0 l/m 0 min 0 min 0 W/m 25,1 km/h (4 Bft) 100,00 %
14.09.2017 23:56 11,1 C 10,6 C 10,0 C 97 % 15 lf 1010,6 hPa 0,0 l/m 0 min 0 min 0 W/m 23,0 km/h (4 Bft) 100,00 %
14.09.2017 23:58 11,1 C 10,6 C 10,0 C 97 % 15 lf 1010,6 hPa 0,0 l/m 0 min 0 min 0 W/m 29,3 km/h (5 Bft) 97,83 %
_ Min-Zeit 17:58 16:58 06:02 15:02 04:18 07:04 - - - - 02:52 15:54
Minimum _ 10,2 C 9,4 C 8,9 C 71 % 0 lf 998,4 hPa - - - - 8,4 km/h (2 Bft) 87,23 %
_ Max-Zeit 12:34 12:12 12:12 19:50 00:00 23:48 00:18 12:10 18:10 13:32 15:00 00:36
Maximum _ 15,2 C 22,2 C 20,0 C 97 % 15 lf 1010,6 hPa 0,2 l/m 4 min 4 min 856 W/m 69,0 km/h
W-SW (8 Bft)
100,00 %
Durchschnitt _ 12,1 C 12,2 C 10,8 C 90 % 8 lf 1002,4 hPa #8,6 l/m #2:26 h #8:18 h 160 W/m 28,4 km/h (4 Bft) 96,35 %
© 2017 W. Hausmann